     2              OBSERVATION DATA    GPS                 RINEX VERSION / TYPE
teqc 1999Jul19 19991123 02:37:39UTC                         PGM / RUN BY / DATE
                                                            COMMENT
Original Marker Name: 0106                                  COMMENT
Campaign Name: HPGN 1991                                    COMMENT
4-Character Station Name: 0106                              COMMENT
6-Character Antenna Code: TRMSST                            COMMENT
Vertical Measurement Point: TGP                             COMMENT
Vertical Offset to Rinex Ref. Point: 0.0629                 COMMENT
Radial Measurement Point: OGP                               COMMENT
Radial Offset to Rinex Ref. Point: 0.2413                   COMMENT
Antenna Height from Field Measurement: 2.2200 m             COMMENT
                                                            COMMENT
Original XYZ: 0.0000 0.0000 0.0000                          COMMENT
New XYZ position is based on association with SCEC monument COMMENT
E1O6M9F8+0011. Position of that monument is believed to be  COMMENT
valid to within 1 m horizontally; vertical accuracy         COMMENT
should be no worse than 3-times this value.                 COMMENT
                                                            COMMENT
Revised Rinex header created by UCSD GPS archive for        COMMENT
GSAC on 10-Mar-2000 (2000:070) 04:16:06 GMT                 COMMENT
For assistance contact dagnew@ucsd.edu or hjohnson@ucsd.edu COMMENT
                                                            COMMENT
HPGN CA 01 06                                               MARKER NAME
0106                                                        MARKER NUMBER
-Unknown- CALIF DEPT TRANSPORTATION                         OBSERVER / AGENCY
484 TRIMBLE 4000 SST NP 4.30 / SP 4.20                      REC # / TYPE / VERS
18 TR 4000SST L1/L2 GEO                                     ANT # / TYPE
 -2684254.7882 -4051855.5934  4117530.9408                  APPROX POSITION XYZ
        2.1439        0.0000        0.0000                  ANTENNA: DELTA H/E/N
     1     1     0                                          WAVELENGTH FACT L1/2
     5    C1    L1    L2    S1    S2                        # / TYPES OF OBSERV
     0                                                      INTERVAL
  1991     7     2     2     3   45.000000                  TIME OF FIRST OBS
  1991     7     2     3    41   30.000000                  TIME OF LAST OBS
                                                            END OF HEADER
 91  7  2  2  3 45.0000000  0  4G16G 3G17G20
  22238396.445          -0.43717        -0.10632        23.000           2.281
  20892225.102          -0.29117                        27.250
  21290958.719          -0.43717                        22.500
  22643552.648          -0.59816        -0.21131        16.750           1.313
 91  7  2  2  4  0.0000000  0  4G16G 3G17G20
  22241394.570       15778.011 7     12294.78622        22.750           2.250
  20886925.828      -27840.959 7                        26.750
  21283741.313      -37922.134 7                        22.500
  22650520.102       36614.948 6     28531.32621        18.000           1.250
 91  7  2  2  4 15.0000000  0  4G16G 3G17G20
  22244412.602       31628.130 7     24645.51722        22.500           2.281
  20881634.117      -55662.507 8                        28.000
  21276533.734      -75808.178 7                        22.750
  22657490.172       73252.952 6     57080.35821        17.000           1.094
 91  7  2  2  4 30.0000000  0  4G16G 3G17G20
  22247442.727       47563.202 7     37062.43922        22.500           2.031
  20876342.703      -83451.230 7        -0.33533        27.000           2.594
  21269335.656     -113645.248 7                        23.000
  22664472.867      109926.138 6     85656.81721        18.000           1.156
 91  7  2  2  4 45.0000000  0  4G16G 3G17G20
  22250496.180       63590.883 7     49551.54522        22.250           2.000
  20871063.930     -111199.115 8    -21622.06423        28.000           2.531
  21262142.500     -151425.280 7        -0.00633        22.000           3.156
  22671459.648      146642.140 6    114266.62621        18.000           1.094
 91  7  2  2  5  0.0000000  0  4G16G 3G17G20
  22253558.258       79705.044 7     62108.02922        21.250           1.906
  20865788.711     -138911.460 7    -43216.09823        27.750           2.625
  21254961.438     -189154.215 7    -29399.15423        21.750           3.313
  22678452.469      183394.984 6    142905.14021        18.250           1.125
 91  7  2  2  5 15.0000000  0  4G16G 3G17G20
  22256649.578       95938.688 7     74757.60822        21.500           1.969
  20860528.930     -166555.536 7    -64756.93323        27.250           2.625
  21247801.109     -226798.816 7    -58732.58023        22.500           3.313
  22685457.617      220217.350 6    171597.83521        17.500           1.125
 91  7  2  2  5 30.0000000  0  4G16G 3G17G20
  22259761.203      112276.431 7     87488.31422        22.500           1.938
  20855277.773     -194145.648 7    -86255.71623        27.250           2.563
  21240647.039     -264374.256 7    -88012.12523        21.500           3.156
  22692474.773      257093.877 6    200332.73621        17.000           1.063
 91  7  2  2  5 45.0000000  0  4G16G 3G17G20
  22262889.695      128731.585 7    100310.50822        22.000           2.000
  20850042.289     -221668.185 7   -107701.83522        27.250           2.469
  21233515.172     -301866.678 7   -117226.98223        21.750           3.125
  22699503.828      294037.631 6    229120.01721        17.250           1.031
 91  7  2  2  6  0.0000000  0  4G16G 3G17G20
  22266039.500      145277.552 7    113203.46522        21.750           1.969
  20844813.258     -249149.424 7   -129115.78123        27.750           2.531
  21226388.547     -339302.566 7   -146397.77723        22.000           3.125
  22706544.313      331022.056 6    257938.99121        18.000           1.125
 91  7  2  2  6 15.0000000  0  4G16G 3G17G20
  22269209.305      161926.412 7    126176.59222        23.250           2.156
  20839592.539     -276576.755 7   -150487.72123        26.500           2.531
  21219281.359     -376669.515 7   -175514.86023        23.250           3.094
  22713588.992      368059.248 6    286799.07321        16.000           1.281
 91  7  2  2  6 30.0000000  0  4G16G 3G17G20
  22272396.211      178690.115 7    139239.21222        22.000           2.219
  20834385.883     -303937.651 7   -171807.89723        27.250           2.531
  21212185.297     -413955.470 7   -204568.81823        22.500           3.063
  22720648.148      405160.999 6    315709.46021        15.750           1.000
 91  7  2  2  6 45.0000000  0  4G16G 3G17G20
  22275609.094      195571.011 7    152393.14522        22.000           2.094
  20829190.992     -331229.530 7   -193074.29423        26.500           2.500
  21205100.977     -451157.510 7   -233557.41323        21.750           3.219
  22727727.688      442329.602 6    344671.93421        17.500           1.250
 91  7  2  2  7  0.0000000  0  4G16G 3G17G20
  22278849.320      212591.220 7    165655.63322        22.000           2.250
  20824016.602     -358429.466 7   -214269.04323        27.000           2.594
  21198045.977     -488253.396 7   -262463.28723        22.000           3.156
  22734815.586      479587.108 6    373703.69721        16.250           1.188
 91  7  2  2  7 15.0000000  0  4G16G 3G17G20
  22282112.289      229727.368 7    179008.46622        22.250           2.188
  20818854.328     -385560.874 7   -235410.38623        27.500           2.563
  21191001.250     -525266.479 7   -291304.63323        21.750           3.094
  22741916.367      516909.956 6    402786.38021        16.750           1.250
 91  7  2  2  7 30.0000000  0  4G16G 3G17G20
  22285397.109      246987.214 7    192457.67922        22.250           2.156
  20813705.609     -412615.180 7   -256491.66623        27.250           2.500
  21183978.070     -562188.274 7   -320074.84023        22.750           3.063
  22749033.266      554306.100 6    431926.16321        16.000           1.219
 91  7  2  2  7 45.0000000  0  4G16G 3G17G20
  22288698.016      264350.759 7    205987.70622        22.000           2.063
  20808567.711     -439612.047 7   -277528.17923        27.500           2.500
  21176965.352     -599038.734 7   -348789.45123        22.750           3.188
  22756159.070      591755.076 6    461107.12121        16.000           1.125
 91  7  2  2  8  0.0000000  0  4G16G 3G17G20
  22292024.883      281834.514 7    219611.40022        21.750           2.031
  20803443.953     -466534.227 7   -298506.49223        26.250           2.656
  21169967.992     -635800.828 7   -377435.22023        22.250           3.156
  22763300.367      629273.469 6    490342.17221        17.250           1.250
 91  7  2  2  8 15.0000000  0  4G16G 3G17G20
  22295380.781      299454.839 7    233341.52122        22.500           2.125
  20798338.836     -493365.400 7   -319413.89023        27.000           2.531
  21162992.500     -672458.234 7   -405999.41123        21.750           3.281
  22770454.023      666877.344 6    519643.83621        16.250           1.219
 91  7  2  2  8 30.0000000  0  4G16G 3G17G20
  22298750.023      317175.022 7    247149.44122        22.000           2.156
  20793244.250     -520141.682 7   -340278.52122        27.750           2.438
  21156028.984     -709047.302 7   -434510.36723        21.750           3.313
  22777619.258      704529.918 6    548983.42021        16.000           1.094
 91  7  2  2  8 45.0000000  0  4G16G 3G17G20
  22302144.930      335009.226 7    261046.21122        22.500           2.156
  20788163.188     -546848.385 7   -361088.94223        27.250           2.500
  21149083.117     -745553.474 7   -462956.71123        21.750           3.344
  22784795.094      742245.336 6    578372.00521        16.500           1.063
 91  7  2  2  9  0.0000000  0  4G16G 3G17G20
  22305556.539      352950.804 7    275026.65722        22.000           2.219
  20783089.328     -573491.788 7   -381850.03223        26.750           2.594
  21142151.305     -781983.321 7   -491343.58123        22.250           3.313
  22791986.258      780016.846 6    607804.30221        15.750           1.188
 91  7  2  2  9 15.0000000  0  4G16G 3G17G20
  22308993.398      371000.337 7    289091.20622        22.250           2.156
  20778034.180     -600070.564 7   -402560.76023        26.750           2.563
  21135233.313     -818335.847 7   -519670.21723        22.500           3.281
  22799181.531      817845.115 6    637280.78321        15.250           1.156
 91  7  2  2  9 30.0000000  0  4G16G 3G17G20
  22312449.813      389159.859 7    303241.46722        22.500           2.250
  20772990.727     -626582.329 7   -423219.28123        27.250           2.500
  21128329.031     -854608.544 7   -547934.63523        21.500           3.344
  22806396.156      855732.201 6    666803.12921        16.000           1.063
 91  7  2  2  9 45.0000000  0  4G16G 3G17G20
  22315928.133      407436.888 7    317483.29622        21.750           2.063
  20767959.438     -653019.089 7   -443819.34822        27.500           2.375
  21121448.445     -890793.909 7   -576131.01423        22.750           3.188
  22813613.555      893685.257 6    696376.86221        15.750           1.031
 91  7  2  2 10  0.0000000  0  4G16G 3G17G20
  22319426.555      425810.304 7    331800.23122        21.500           2.156
  20762940.445     -679401.640 7   -464377.18023        27.250           2.563
  21114573.016     -926912.491 7   -604275.34123        22.500           3.344
  22820846.258      931683.258 6    725985.64621        15.500           1.094
 91  7  2  2 10 15.0000000  0  4G16G 3G17G20
  22322945.477      444309.221 7    346214.95522        21.750           2.094
  20757934.391     -705700.110 7   -484869.48723        26.750           2.531
  21107718.414     -962934.871 7   -632344.71424        23.000           3.500
  22828090.164      969755.335 6    755652.11421        15.250           1.125
 91  7  2  2 10 30.0000000  0  4G16G 3G17G20
  22326483.016      462905.105 7    360705.25522        20.750           2.031
  20752939.000     -731942.793 7   -505318.32123        27.500           2.531
  21100875.344     -998889.756 7   -660361.48824        22.500           3.500
  22835345.875     1007872.629 6    785353.83021        15.750           1.031
 91  7  2  2 10 45.0000000  0  4G16G 3G17G20
  22330043.375      481615.951 7    375285.11622        20.750           2.094
  20747959.813     -758111.243 7   -525709.31523        27.000           2.531
  21094048.422    -1034758.558 7   -688311.18424        22.750           3.594
  22842608.383     1046053.090 6    815104.77321        16.000           1.031
 91  7  2  2 11  0.0000000  0  4G16G 3G17G20
  22333633.391      500455.067 7    389964.93222        21.750           2.031
  20743000.594     -784191.714 7   -546031.75523        27.000           2.625
  21087242.625    -1070527.603 7   -716183.14124        22.750           3.500
  22849891.250     1084309.985 6    844915.27221        15.250           1.094
 91  7  2  2 11 15.0000000  0  4G16G 3G17G20
  22337237.914      519412.159 7    404736.67422        21.500           1.875
  20738046.008     -810194.087 7   -566293.33723        26.000           2.500
  21080454.852    -1106207.301 7   -743985.47924        22.750           3.563
  22857184.492     1122632.710 6    874777.06521        16.250           0.969
 91  7  2  2 11 30.0000000  0  4G16G 3G17G20
  22340868.141      538492.415 7    419604.39422        21.250           1.844
  20733114.977     -836112.445 7   -586489.45023        26.000           2.531
  21073680.750    -1141791.643 7   -771713.52323        22.000           3.406
  22864492.781     1161026.789 6    904694.45621        17.250           1.000
 91  7  2  2 11 45.0000000  0  4G16G 3G17G20
  22344519.586      557680.237 7    434555.93722        22.000           1.813
  20728196.313     -861962.124 7   -606632.05823        25.750           2.563
  21066922.336    -1177296.344 7   -799379.51123        22.250           3.406
  22871805.570     1199476.183 6    934654.94921        16.250           0.844
 91  7  2  2 12  0.0000000  0  4G16G 3G17G20
  22348191.570      576983.062 7    449597.09122        21.000           1.719
  20723294.180     -887735.244 7   -626714.99623        26.250           2.531
  21060186.594    -1212713.670 7   -826977.41223        24.000           3.313
  22879135.867     1237988.254 6    964664.28721        16.500           0.844
 91  7  2  2 12 15.0000000  0  4G16G 3G17G20
  22351887.766      596397.902 7    464725.52422        21.250           1.688
  20718402.852     -913433.964 7   -646739.97323        25.250           2.500
  21053463.844    -1248045.790 7   -854508.90424        24.250           3.500
  22886475.891     1276560.300 6    994720.37221        16.500           0.969
 91  7  2  2 12 30.0000000  0  4G16G 3G17G20
  22355601.617      615904.474 7    479925.44122        20.500           1.625
  20713525.695     -939078.163 7   -666722.46423        26.000           2.656
  21046754.703    -1283312.884 7   -881989.72823        23.750           3.406
  22893825.039     1315172.092 6   1024807.39821        17.000           0.906
 91  7  2  2 12 45.0000000  0  4G16G 3G17G20
  22359328.664      635513.347 7    495205.07522        20.500           1.813
  20708656.891     -964656.732 7   -686653.81123        26.250           2.531
  21040053.695    -1318504.306 7   -909411.59924        22.750           3.625
  22901176.773     1353833.803 6   1054933.33121        15.000           0.969
 91  7  2  2 13  0.0000000  0  4G16G 3G17G20
  22363077.508      655218.975 7    510560.09522        21.000           1.844
  20703801.227     -990175.236 7   -706538.35423        26.250           2.594
  21033366.469    -1353625.415 7   -936778.68424        20.750           3.594
  22908547.383     1392539.727 6   1085093.72321        16.500           0.781
 91  7  2  2 13 15.0000000  0  4G16G 3G17G20
  22366850.180      675043.674 7    526007.90522        20.250           1.781
  20698959.930    -1015610.448 7   -726358.00123        26.250           2.563
  21026705.266    -1388653.401 7   -964073.22124        22.000           3.594
  22915926.648     1431312.406 6   1115306.13621        16.750           0.813
 91  7  2  2 13 30.0000000  0  4G16G 3G17G20
  22370642.953      694974.505 7    541538.39922        20.500           1.813
  20694133.375    -1040975.142 7   -746122.70223        26.500           2.688
  21020057.313    -1423601.025 7   -991305.11123        23.000           3.406
  22923311.305     1470138.599 6   1145560.23721        15.750           0.844
 91  7  2  2 13 45.0000000  0  4G16G 3G17G20
  22374457.875      715019.866 7    557158.15022        21.000           1.781
  20689322.313    -1066260.402 7   -765825.49723        25.500           2.656
  21013424.586    -1458459.681 7  -1018467.67323        24.250           3.469
  22930712.758     1509026.509 6   1175862.43121        15.250           0.906
 91  7  2  2 14  0.0000000  0  4G16G 3G17G20
  22378296.680      735178.545 7    572866.20422        20.750           1.844
  20684524.945    -1091466.987 7   -785466.98323        25.750           2.719
  21006807.570    -1493230.376 7  -1045561.69524        24.500           3.500
  22938121.961     1547974.825 6   1206211.68821        15.000           0.750
 91  7  2  2 14 15.0000000  0  4G16G 3G17G20
  22382153.992      755456.408 7    588667.11122        20.000           1.844
  20679743.586    -1116588.503 7   -805042.18423        25.750           2.750
  21000209.492    -1527906.839 7  -1072582.29624        24.250           3.594
  22945551.539     1586989.391 6   1236612.58921        15.500           0.813
 91  7  2  2 14 30.0000000  0  4G16G 3G17G20
  22386038.227      775843.822 7    604553.38822        21.250           1.875
  20674982.492    -1141633.799 7   -824557.99423        26.750           2.656
  20993626.727    -1562498.226 7  -1099536.61324        23.250           3.750
  22952982.766     1626060.761 6   1267057.72021        15.250           0.906
 91  7  2  2 14 45.0000000  0  4G16G 3G17G20
  22389932.984      796327.197 7    620514.44822        20.750           1.750
  20670223.531    -1166616.085 7   -844024.71423        26.500           2.625
  20987053.500    -1597017.703 7  -1126434.89224        22.750           3.688
  22960429.359     1665175.325 6   1297536.51821        15.000           0.844
 91  7  2  2 15  0.0000000  0  4G16G 3G17G20
  22393852.984      816930.244 7    636568.75722        21.000           1.844
  20665488.570    -1191511.224 7   -863423.52123        26.250           2.719
  20980504.938    -1631441.477 7  -1153258.59824        23.500           3.688
  22967883.516     1704356.369 6   1328067.13721        15.750           0.781
 91  7  2  2 15 15.0000000  0  4G16G 3G17G20
  22397794.742      837655.594 7    652718.36522        21.250           1.625
  20660766.680    -1216316.350 7   -882752.18423        26.250           2.750
  20973971.828    -1665766.917 7  -1180005.67524        23.500           3.656
  22975350.766     1743606.406 6   1358651.51021        14.250           0.844
 91  7  2  2 15 30.0000000  0  4G16G 3G17G20
  22401763.359      858501.062 7    668961.57922        20.750           1.594
  20656066.289    -1241032.770 7   -902011.73023        27.000           2.813
  20967459.430    -1699995.618 7  -1206677.36824        23.250           3.531
  22982835.391     1782923.462 6   1389288.09121        15.000           0.844
 91  7  2  2 15 45.0000000  0  5G16G 3G17G20G23
  22405748.156      879435.248 7    685273.91522        20.250           1.656
  20651370.867    -1265691.616 7   -921226.40823        26.250           2.844
  20960961.563    -1734158.707 7  -1233297.93624        24.000           3.500
  22990323.250     1822276.006 6   1419952.33621        15.000           0.875
  24278188.820          -0.80215                         8.000
 91  7  2  2 16  0.0000000  0  5G16G 3G17G20G23
  22409750.766      900474.257 7    701667.92422        20.750           1.719
  20646692.602    -1290276.335 7   -940383.32723        26.250           2.844
  20954474.609    -1768239.944 7  -1259854.72224        23.250           3.531
  22997817.711     1861679.986 6   1450656.65721        13.250           0.813
  24265280.297      -67835.846 5                         8.750
 91  7  2  2 16 15.0000000  0  5G16G 3G17G20G23
  22413775.680      921610.815 7    718137.95622        20.500           1.594
  20642027.984    -1314793.863 7   -959487.88723        26.500           2.813
  20948000.953    -1802246.440 7  -1286353.27724        22.500           3.531
  23005329.250     1901127.725 6   1481395.06821        15.000           0.844
  24252379.125     -135653.204 5                         9.000
 91  7  2  2 16 30.0000000  0  5G16G 3G17G20G23
  22417812.500      942846.487 7    734685.21722        20.250           1.625
  20637373.516    -1339242.168 7   -978538.50823        26.250           2.969
  20941544.914    -1836176.205 7  -1312792.04224        22.500           3.594
  23012842.703     1940621.033 6   1512168.99821        14.750           0.781
  24239477.688     -203450.417 5                         9.250
 91  7  2  2 16 45.0000000  0  5G16G 3G17G20G23
  22421877.008      964212.049 7    751333.69122        20.000           1.594
  20632742.875    -1363589.572 7   -997510.50723        26.750           2.875
  20935110.008    -1869997.833 7  -1339146.54324        23.250           3.625
  23020372.445     1980191.021 6   1543002.66821        14.000           0.813
  24226588.234     -271195.999 5        -0.21331         9.000           0.438
 91  7  2  2 17  0.0000000  0  5G16G 3G17G20G23
  22425967.133      985678.218 7    768060.55622        20.000           1.688
  20628122.633    -1387865.049 7  -1016426.45823        26.750           2.906
  20928687.930    -1903740.631 7  -1365439.61124        23.500           3.625
  23027910.188     2019808.012 6   1573872.96121        14.250           0.844
  24213698.391     -338918.789 5    -52771.01721         9.500           0.344
 91  7  2  2 17 15.0000000  0  5G16G 3G17G20G23
  22430072.516     1007244.269 7    784865.25622        20.500           1.688
  20623517.852    -1412068.925 7  -1035286.61623        26.000           2.969
  20922284.859    -1937404.954 7  -1391671.53824        24.250           3.750
  23035460.250     2059471.040 6   1604779.14421        14.750           0.750
  24200814.969     -406618.870 5   -105524.14521         9.250           0.375
 91  7  2  2 17 30.0000000  0  5G16G 3G17G20G23
  22434194.719     1028914.248 6    801750.94022        19.750           1.563
  20618923.852    -1436196.718 7  -1054087.48223        25.750           2.938
  20915895.016    -1970986.715 7  -1417839.11724        24.250           3.719
  23043016.406     2099184.098 6   1635724.29621        14.750           0.750
  24187936.313     -474291.872 5   -158256.17321         8.500           0.313
 91  7  2  2 17 45.0000000  0  5G16G 3G17G20G23
  22438338.711     1050709.377 7    818734.13222        20.250           1.688
  20614352.938    -1460226.402 7  -1072811.91423        26.250           2.875
  20909520.742    -2004463.887 7  -1443925.21324        23.000           3.719
  23050587.719     2138968.551 6   1666725.09521        14.750           0.719
  24175070.055     -541915.642 5   -210949.86221         9.000           0.281
 91  7  2  2 18  0.0000000  0  5G16G 3G17G20G23
  22442502.750     1072599.379 6    835791.25622        19.000           1.625
  20609793.914    -1484187.964 7  -1091483.25423        26.750           2.906
  20903166.586    -2037866.678 7  -1469953.35924        23.750           3.625
  23058166.633     2178794.230 6   1697757.98821        15.000           0.750
  24162204.945     -609519.739 5   -263628.19421         8.500           0.469
 91  7  2  2 18 15.0000000  0  5G16G 3G17G20G23
  22446690.531     1094596.618 6    852931.94522        19.500           1.656
  20605249.828    -1508068.370 7  -1110091.36323        26.500           2.844
  20896827.813    -2071182.379 7  -1495913.61724        24.500           3.594
  23065755.109     2218673.280 6   1728832.50021        14.500           0.594
  24149345.094     -677091.336 5   -316281.18921         8.000           0.438
 91  7  2  2 18 30.0000000  0  5G16G 3G17G20G23
  22450899.750     1116711.628 6    870164.40522        19.750           1.625
  20600722.852    -1531856.809 7  -1128627.80723        26.000           2.906
  20890502.836    -2104400.535 7  -1521797.87924        24.250           3.563
  23073356.719     2258616.033 6   1759956.64921        14.500           0.688
  24136494.359     -744619.509 5   -368900.32021         8.000           0.313
 91  7  2  2 18 45.0000000  0  5G16G 3G17G20G23
  22455133.648     1138965.382 6    887504.97122        19.750           1.688
  20596216.164    -1555531.987 7  -1147075.99123        26.000           2.906
  20884204.500    -2137499.769 7  -1547589.46824        23.750           3.563
  23080974.570     2298643.313 6   1791146.64821        14.750           0.844
  24123659.477     -812082.731 5   -421468.87521         9.250           0.156
 91  7  2  2 19  0.0000000  0  5G16G 3G17G20G23
  22459390.469     1161326.882 7    904929.50322        20.500           1.719
  20591727.695    -1579124.258 7  -1165459.57423        26.500           2.875
  20877923.680    -2170510.756 7  -1573312.30924        24.250           3.656
  23088598.063     2338724.196 6   1822378.43521        13.500           0.781
  24110820.109     -879511.466 5   -474010.60921         8.000           0.250
 91  7  2  2 19 15.0000000  0  5G16G 3G17G20G23
  22463667.500     1183803.076 6    922443.40222        19.500           1.781
  20587255.133    -1602626.145 7  -1183772.73823        26.000           2.844
  20871661.859    -2203426.012 7  -1598960.54324        23.750           3.625
  23096241.969     2378865.501 6   1853657.26521        16.250           0.750
  24097998.094     -946898.138 4   -526519.53121         7.250           0.313
 91  7  2  2 19 30.0000000  0  5G16G 3G17G20G23
  22467961.148     1206378.393 7    940034.53922        20.250           1.813
  20582797.820    -1626052.559 7  -1202027.08323        26.500           2.875
  20865412.641    -2236260.785 7  -1624546.07724        24.000           3.656
  23103887.188     2419051.807 6   1884971.22921        13.500           0.781
  24085186.594    -1014257.576 5   -579007.21321         9.250           0.438
 91  7  2  2 19 45.0000000  0  5G16G 3G17G20G23
  22472276.758     1229048.441 7    957699.49422        20.500           1.719
  20578351.625    -1649407.561 7  -1220225.77823        25.750           2.938
  20859179.609    -2269019.463 7  -1650072.30024        24.000           3.563
  23111540.570     2459278.576 6   1916316.65021        14.500           0.719
  24072376.422    -1081593.579 5   -631476.66121         9.500           0.344
 91  7  2  2 20  0.0000000  0  5G16G 3G17G20G23
  22476610.828     1251830.975 6    975452.09822        19.500           1.688
  20573925.922    -1672673.049 7  -1238354.72423        26.750           2.906
  20852959.953    -2301683.960 7  -1675525.13623        23.000           3.438
  23119207.609     2499563.237 6   1947707.21721        14.500           0.719
  24059560.547    -1148888.015 5   -683913.69721         8.250           0.375
 91  7  2  2 20 15.0000000  0  5G16G 3G17G20G23
  22480968.664     1274722.957 6    993289.98522        19.500           1.719
  20569512.141    -1695851.182 7  -1256415.60323        26.000           3.000
  20846761.789    -2334256.589 7  -1700906.39924        23.000           3.594
  23126886.281     2539903.051 6   1979140.75421        15.500           0.750
  24046764.398    -1216143.145 5   -736320.11921         8.750           0.281
 91  7  2  2 20 30.0000000  0  5G16G 3G17G20G23
  22485345.445     1297714.827 7   1011205.70722        20.000           1.781
  20565120.656    -1718951.298 7  -1274415.69323        26.500           2.844
  20840583.625    -2366746.880 7  -1726223.49224        24.000           3.625
  23134567.945     2580288.149 6   2010609.59921        13.500           0.625
  24033973.586    -1283368.045 5   -788703.01121         9.250           0.344
 91  7  2  2 20 45.0000000  0  5G16G 3G17G20G23
  22489738.492     1320808.955 6   1029201.11122        19.750           1.625
  20560740.344    -1741970.639 7  -1292352.83523        26.250           2.813
  20834413.813    -2399152.499 7  -1751474.61724        24.000           3.500
  23142263.727     2620720.773 6   2042115.44821        14.000           0.750
  24021184.867    -1350560.043 5   -841060.27721         9.000           0.344
 91  7  2  2 21  0.0000000  0  5G16G 3G17G20G23
  22494145.961     1343993.417 7   1047266.90622        20.000           1.563
  20556370.211    -1764920.788 7  -1310236.06923        25.750           2.750
  20828261.133    -2431485.233 7  -1776668.94524        24.750           3.594
  23149961.805     2661188.684 6   2073648.80121        13.750           0.813
  24008401.438    -1417730.570 5   -893400.76621         9.000           0.344
 91  7  2  2 21 15.0000000  0  5G16G 3G17G20G23
  22498579.445     1367273.275 7   1065407.03822        20.000           1.563
  20552019.047    -1787795.737 7  -1328060.69223        25.750           2.844
  20822124.414    -2463739.021 7  -1801801.75424        24.250           3.531
  23157674.531     2701697.349 6   2105213.90921        14.250           0.656
  23995625.328    -1484873.429 5   -945719.70921         8.750           0.406
 91  7  2  2 21 30.0000000  0  5G16G 3G17G20G23
  22503031.031     1390666.092 7   1083635.19221        20.250           1.438
  20547683.344    -1810577.697 7  -1345812.86623        26.250           2.875
  20816002.586    -2495896.131 7  -1826859.22724        23.750           3.500
  23165394.617     2742264.135 6   2136824.30721        14.000           0.563
  23982856.086    -1551970.702 5   -998003.12821         8.250           0.219
 91  7  2  2 21 45.0000000  0  5G16G 3G17G20G23
  22507504.477     1414164.277 6   1101945.44622        19.750           1.531
  20543363.570    -1833273.236 7  -1363497.69323        26.250           2.781
  20809902.344    -2527963.889 7  -1851847.08624        24.000           3.594
  23173121.836     2782881.682 6   2168474.27821        14.000           0.656
  23970093.977    -1619029.157 5  -1050256.30721         9.250           0.250
 91  7  2  2 22  0.0000000  0  5G16G 3G17G20G23
  22511997.641     1437770.944 6   1120340.22122        19.750           1.563
  20539062.820    -1855879.040 7  -1381112.59623        26.000           2.813
  20803819.484    -2559939.065 7  -1876762.79024        24.750           3.500
  23180863.219     2823552.949 6   2200166.08721        13.250           0.875
  23957344.844    -1686045.045 5  -1102476.36021         8.750           0.344
 91  7  2  2 22 15.0000000  0  5G16G 3G17G20G23
  22516505.773     1461476.224 6   1138811.84622        19.500           1.656
  20534774.250    -1878404.775 7  -1398665.11223        26.000           2.875
  20797748.047    -2591831.432 7  -1901613.97224        24.500           3.656
  23188607.133     2864267.713 6   2231891.75221        14.250           0.625
  23944596.141    -1753028.090 5  -1154670.76121         8.750           0.344
 91  7  2  2 22 30.0000000  0  5G16G 3G17G20G23
  22521036.492     1485277.789 6   1157358.49622        19.500           1.750
  20530503.734    -1900852.361 7  -1416156.72423        26.000           2.625
  20791695.430    -2623642.961 7  -1926402.16424        24.750           3.656
  23196361.391     2905023.625 6   2263649.56521        12.750           0.531
  23931862.273    -1819980.202 5  -1206841.07021         9.000           0.406
 91  7  2  2 22 45.0000000  0  5G16G 3G17G20G23
  22525582.641     1509177.210 6   1175981.39122        18.750           1.719
  20526248.203    -1923219.200 7  -1433585.43023        26.500           2.719
  20785660.195    -2655371.559 7  -1951125.73224        24.750           3.750
  23204126.289     2945822.383 6   2295440.70021        12.500           0.719
  23919121.375    -1886898.778 5  -1258985.22621         9.750           0.344
 91  7  2  2 23  0.0000000  0  5G16G 3G17G20G23
  22530150.445     1533179.681 6   1194684.58422        19.250           1.625
  20522009.547    -1945500.063 7  -1450947.13223        26.750           2.781
  20779635.406    -2687011.852 7  -1975780.49724        23.750           3.719
  23211901.570     2986669.088 6   2327269.21321        13.250           0.594
  23906398.000    -1953778.244 5  -1311099.00221         9.250           0.344
 91  7  2  2 23 15.0000000  0  5G16G 3G17G20G23
  22534738.891     1557291.956 6   1213473.35022        19.500           1.594
  20517785.992    -1967687.557 7  -1468236.08623        26.250           2.750
  20773633.492    -2718556.674 7  -2000360.86323        24.250           3.469
  23219684.320     3027570.240 6   2359140.15521        12.750           0.750
  23893683.625    -2020611.373 5  -1363176.59921         9.000           0.406
 91  7  2  2 23 30.0000000  0  5G16G 3G17G20G23
  22539349.672     1581508.631 6   1232343.46022        19.250           1.563
  20513581.102    -1989786.754 7  -1485456.23323        25.750           2.813
  20767648.969    -2750011.401 7  -2024871.03324        25.250           3.500
  23227478.031     3068520.321 6   2391049.19821        14.000           0.625
  23880968.922    -2087402.947 5  -1415221.81321         9.000           0.375
 91  7  2  2 23 45.0000000  0  5G16G 3G17G20G23
  22543976.641     1605824.304 7   1251290.71722        20.000           1.500
  20509388.633    -2011802.585 7  -1502611.42023        25.500           2.750
  20761678.867    -2781381.390 7  -2049315.15623        24.750           3.438
  23235275.953     3109513.712 6   2422992.03421        13.250           0.688
  23868261.023    -2154157.956 5  -1467238.54521         9.750           0.375
 91  7  2  2 24  0.0000000  0  5G16G 3G17G20G23
  22548621.820     1630241.920 7   1270317.40322        20.000           1.500
  20505220.922    -2033731.165 7  -1519698.61923        26.250           2.719
  20755725.797    -2812663.100 7  -2073690.51123        24.250           3.469
  23243090.125     3150553.692 6   2454971.13221        13.250           0.656
  23855570.383    -2220872.461 5  -1519223.74121         9.500           0.438
 91  7  2  2 24 15.0000000  0  5G16G 3G17G20G23
  22553288.469     1654757.167 7   1289420.17021        20.250           1.313
  20501061.289    -2055576.396 7  -1536720.87023        25.500           2.813
  20749788.805    -2843860.343 7  -2098000.03524        25.000           3.531
  23250903.313     3191635.851 6   2486983.12321        13.250           0.781
  23842884.008    -2287550.199 5  -1571180.25521         8.750           0.281
 91  7  2  2 24 30.0000000  0  5G16G 3G17G20G23
  22557970.430     1679369.448 6   1308598.54521        19.500           1.344
  20496922.195    -2077338.403 7  -1553678.28223        26.000           2.875
  20743866.164    -2874973.263 7  -2122243.87223        24.750           3.375
  23258729.945     3232759.822 6   2519027.65021        12.750           0.656
  23830198.586    -2354191.117 5  -1623108.12221         9.750           0.219
 91  7  2  2 24 45.0000000  0  5G16G 3G17G20G23
  22562674.328     1704081.924 6   1327854.99821        19.500           1.344
  20492796.266    -2099013.459 7  -1570567.93723        25.750           2.813
  20737965.461    -2905998.641 7  -2146419.48223        25.500           3.406
  23266565.359     3273928.569 6   2551107.10421        12.750           0.656
  23817522.891    -2420791.658 5  -1675004.53521         9.250           0.344
 91  7  2  2 25  0.0000000  0  5G16G 3G17G20G23
  22567395.227     1728892.689 6   1347188.03621        18.750           1.438
  20488688.789    -2120603.138 7  -1587391.04823        25.500           2.875
  20732076.984    -2936937.987 7  -2170528.05023        25.500           3.438
  23274407.188     3315139.842 6   2583219.69521        12.500           0.625
  23804863.461    -2487353.317 5  -1726870.58321         9.500           0.594
 91  7  2  2 25 15.0000000  0  5G16G 3G17G20G23
  22572135.156     1753814.089 6   1366607.27822        18.000           1.563
  20484596.234    -2142094.807 7  -1604137.80323        25.500           2.906
  20726210.078    -2967778.977 7  -2194559.97424        25.750           3.594
  23282259.250     3356405.948 6   2615375.00021        13.250           0.719
  23792202.180    -2553863.065 5  -1778696.20721         9.000           0.375
 91  7  2  2 25 30.0000000  0  5G16G 3G17G20G23
  22576894.977     1778824.552 6   1386095.91821        18.500           1.438
  20480522.414    -2163509.288 7  -1620824.40723        26.250           2.781
  20720354.219    -2998542.753 7  -2218531.73024        24.750           3.625
  23290119.563     3397705.364 6   2647556.26621        13.000           0.688
  23779545.094    -2620341.659 5  -1830497.57621         9.000           0.219
 91  7  2  2 25 45.0000000  0  5G16G 3G17G20G23
  22581678.211     1803941.002 6   1405667.15621        19.000           1.406
  20476465.867    -2184829.011 7  -1637437.16823        25.500           2.906
  20714517.180    -3029212.065 7  -2242429.88424        24.750           3.719
  23297990.430     3439055.129 6   2679776.77521        13.500           0.563
  23766915.711    -2686771.655 5  -1882261.11721         9.250           0.406
 91  7  2  2 26  0.0000000  0  5G16G 3G17G20G23
  22586466.922     1829123.893 6   1425290.15921        18.500           1.406
  20472417.766    -2206092.871 7  -1654006.40823        26.000           2.781
  20708692.930    -3059825.887 7  -2266284.80024        24.750           3.719
  23305859.227     3480415.682 6   2712005.71021        13.500           0.656
  23754267.188    -2753191.907 5  -1934016.98921         9.000           0.438
 91  7  2  2 26 15.0000000  0  5G16G 3G17G20G23
  22591279.477     1854396.641 6   1444983.18222        18.750           1.563
  20468386.742    -2227277.466 7  -1670513.87323        26.500           2.750
  20702880.773    -3090361.173 7  -2290078.52124        24.250           3.750
  23313736.094     3521810.092 6   2744260.97021        12.500           0.656
  23741639.820    -2819578.775 5  -1985746.86121         9.000           0.375
 91  7  2  2 26 30.0000000  0  5G16G 3G17G20G23
  22596104.680     1879781.113 6   1464763.26222        18.250           1.625
  20464372.414    -2248360.040 7  -1686941.84823        25.500           2.719
  20697093.055    -3120795.171 7  -2313793.31924        24.750           3.563
  23321623.047     3563260.266 6   2776559.71121        13.500           0.500
  23729012.383    -2885909.499 5  -2037432.98621        10.250           0.500
 91  7  2  2 26 45.0000000  0  5G16G 3G17G20G23
  22600953.891     1905258.028 6   1484615.36322        19.250           1.656
  20460379.023    -2269359.621 7  -1703305.15523        26.250           2.688
  20691314.758    -3151146.942 7  -2337444.03823        24.250           3.438
  23329520.695     3604746.773 6   2808886.77721        12.000           0.563
  23716398.172    -2952203.022 5  -2089090.16221         9.750           0.438
 91  7  2  2 27  0.0000000  0  5G16G 3G17G20G23
  22605825.727     1930829.590 6   1504541.23022        19.000           1.531
  20456398.828    -2290273.707 7  -1719601.84723        26.750           2.781
  20685556.813    -3181414.490 7  -2361029.13024        24.250           3.531
  23337422.820     3646271.692 6   2841243.73221        12.750           0.625
  23703792.070    -3018456.609 5  -2140716.20921         9.250           0.406
 91  7  2  2 27 15.0000000  0  5G16G 3G17G20G23
  22610710.477     1956509.932 6   1524551.85422        18.500           1.594
  20452439.602    -2311087.396 7  -1735820.30623        26.000           2.813
  20679815.648    -3211583.204 7  -2384537.20924        25.000           3.563
  23345329.492     3687849.276 6   2873641.75321        12.250           0.688
  23691193.555    -3084655.426 5  -2192299.54921        10.250           0.438
 91  7  2  2 27 30.0000000  0  5G16G 3G17G20G23
  22615611.664     1982280.238 6   1544632.57922        17.500           1.500
  20448494.031    -2331818.906 7  -1751974.72723        26.250           2.844
  20674086.813    -3241671.309 7  -2407982.47224        24.750           3.625
  23353250.828     3729460.748 5   2906066.16121        11.500           0.625
  23678606.766    -3150817.527 5  -2243854.30421        11.000           0.500
 91  7  2  2 27 45.0000000  0  5G16G 3G17G20G23
  22620535.336     2008144.136 6   1564786.24421        18.250           1.406
  20444566.750    -2352464.141 7  -1768061.92623        26.500           2.750
  20668378.867    -3271674.848 7  -2431361.84924        24.250           3.594
  23361177.281     3771109.667 6   2938519.76121        12.000           0.594
  23666024.359    -3216938.827 5  -2295377.23021        11.500           0.656
 91  7  2  2 28  0.0000000  0  5G16G 3G17G20G23
  22625478.273     2034119.039 6   1585026.40621        18.000           1.375
  20440657.695    -2373005.060 7  -1784067.83623        26.500           2.719
  20662686.141    -3301576.112 7  -2454661.52424        24.250           3.625
  23369113.875     3812813.273 6   2971015.96821        12.500           0.719
  23653450.883    -3283001.415 5  -2346854.45621        10.000           0.406
 91  7  2  2 28 15.0000000  0  5G16G 3G17G20G23
  22630444.336     2060191.568 6   1605342.63221        18.500           1.375
  20436766.891    -2393454.513 7  -1800002.47123        26.250           2.719
  20657015.961    -3331388.069 7  -2477891.60924        24.750           3.531
  23377057.680     3854558.449 6   3003544.55021        12.750           0.656
  23640885.102    -3349017.731 5  -2398295.59221        10.000           0.344
 91  7  2  2 28 30.0000000  0  5G16G 3G17G20G23
  22635418.250     2086343.116 6   1625720.43421        18.750           1.344
  20432887.656    -2413830.873 7  -1815880.15223        26.000           2.750
  20651355.297    -3361129.482 7  -2501066.72323        25.000           3.438
  23385006.461     3896326.266 6   3036090.83721        12.250           0.469
  23628328.875    -3415005.967 5  -2449714.90721        10.250           0.531
 91  7  2  2 28 45.0000000  0  5G16G 3G17G20G23
  22640409.602     2112594.284 6   1646175.86521        18.250           1.344
  20429024.102    -2434112.995 7  -1831684.40823        25.000           2.813
  20645714.867    -3390779.285 7  -2524170.44924        26.000           3.594
  23392959.102     3938137.279 5   3068670.74521        11.000           0.750
  23615777.094    -3480945.056 5  -2501095.85121        10.500           0.688
 91  7  2  2 29  0.0000000  0  5G16G 3G17G20G23
  22645425.453     2138947.222 6   1666710.60021        18.250           1.469
  20425188.219    -2454298.144 7  -1847413.09823        26.000           2.813
  20640090.969    -3420334.990 7  -2547200.85324        25.000           3.563
  23400927.305     3979993.613 6   3101285.91221        12.500           0.563
  23603247.148    -3546832.206 5  -2552436.32921         9.750           0.438
 91  7  2  2 29 15.0000000  0  5G16G 3G17G20G23
  22650457.047     2165386.352 6   1687312.47822        17.750           1.500
  20421359.500    -2474401.392 7  -1863077.97223        25.500           2.750
  20634482.797    -3449811.922 7  -2570169.88924        24.500           3.531
  23408895.508     4021879.502 6   3133924.21121        12.500           0.406
  23590716.359    -3612682.548 5  -2603748.15221        10.750           0.344
 91  7  2  2 29 30.0000000  0  5G16G 3G17G20G23
  22655502.219     2191911.821 6   1707981.64022        18.000           1.500
  20417551.367    -2494422.279 7  -1878678.66623        26.250           2.750
  20628886.586    -3479209.746 7  -2593077.27623        24.250           3.469
  23416870.938     4063794.992 5   3166585.55521        11.250           0.563
  23578192.938    -3678495.359 5  -2655030.76621        11.000           0.344
 91  7  2  2 29 45.0000000  0  5G16G 3G17G20G23
  22660568.836     2218519.947 6   1728715.21722        18.500           1.531
  20413755.281    -2514364.007 7  -1894217.67223        25.750           2.594
  20623306.336    -3508532.010 7  -2615925.78923        24.250           3.469
  23424851.867     4105736.259 5   3199266.90121        11.500           0.563
  23565672.180    -3744273.806 5  -2706286.57521        11.250           0.500
 91  7  2  2 30  0.0000000  0  5G16G 3G17G20G23
  22665650.758     2245227.938 6   1749526.61521        17.500           1.406
  20409982.266    -2534208.581 7  -1909680.97623        26.500           2.688
  20617744.352    -3537760.761 7  -2638701.42523        24.500           3.406
  23432846.180     4147720.877 6   3231982.09721        13.250           0.531
  23553163.023    -3809999.838 5  -2757501.52821        10.250           0.563
 91  7  2  2 30 15.0000000  0  5G16G 3G17G20G23
  22670752.648     2272043.762 6   1770422.02022        16.750           1.500
  20406223.875    -2553947.486 7  -1925061.94823        25.750           2.625
  20612204.484    -3566887.684 7  -2661397.71124        24.750           3.500
  23440848.656     4189756.681 6   3264737.18621        12.000           0.500
  23540670.047    -3875664.824 6  -2808668.87121        12.250           0.469
 91  7  2  2 30 30.0000000  0  5G16G 3G17G20G23
  22675874.586     2298948.933 6   1791387.05821        17.500           1.406
  20402485.164    -2573598.725 7  -1940374.60423        26.500           2.688
  20606673.391    -3595931.176 7  -2684028.99924        23.750           3.594
  23448849.367     4231825.106 6   3297517.65121        12.250           0.438
  23528185.883    -3941286.670 5  -2859802.68021        11.500           0.375
 91  7  2  2 30 45.0000000  0  5G16G 3G17G20G23
  22681008.078     2325925.883 6   1812408.03221        17.750           1.219
  20398758.805    -2593179.555 7  -1955632.38323        26.250           2.719
  20601160.000    -3624908.700 7  -2706608.88424        23.750           3.750
  23456856.461     4273908.414 5   3330309.73421        11.000           0.531
  23515698.617    -4006882.691 6  -2910916.35121        12.000           0.469
 91  7  2  2 31  0.0000000  0  5G16G 3G17G20G23
  22686157.781     2353004.643 6   1833508.33721        18.250           1.250
  20395052.578    -2612659.322 7  -1970811.42523        26.000           2.656
  20595663.047    -3653789.532 7  -2729113.42024        24.500           3.656
  23464876.133     4316036.753 6   3363136.88721        12.000           0.469
  23503229.703    -4072421.881 5  -2961985.70021        11.250           0.500
 91  7  2  2 31 15.0000000  0  5G16G 3G17G20G23
  22691335.141     2380179.799 6   1854683.76521        17.750           1.156
  20391363.367    -2632043.139 7  -1985915.69823        26.000           2.625
  20590190.883    -3682579.235 7  -2751546.94124        26.000           3.656
  23472893.406     4358204.443 5   3395994.73621        11.500           0.438
  23490764.930    -4137909.391 5  -3013014.78821        11.000           0.625
 91  7  2  2 31 30.0000000  0  5G16G 3G17G20G23
  22696521.125     2407441.366 6   1875926.51021        18.250           1.250
  20387689.836    -2651340.258 7  -2000952.41623        25.750           2.656
  20584723.914    -3711287.217 7  -2773916.78724        25.250           3.563
  23480931.148     4400401.516 5   3428875.47221        11.750           0.531
  23478311.047    -4203354.452 5  -3064010.81221        11.500           0.563
 91  7  2  2 31 45.0000000  0  5G16G 3G17G20G23
  22701726.875     2434792.964 6   1897239.42321        17.750           1.281
  20384036.359    -2670546.499 7  -2015918.31823        26.000           2.594
  20579275.820    -3739909.527 7  -2796219.87124        24.500           3.656
  23488965.297     4442631.635 6   3461781.92721        12.250           0.625
  23465869.711    -4268752.950 6  -3114970.56721        12.000           0.531
 91  7  2  2 32  0.0000000  0  5G16G 3G17G20G23
  22706943.977     2462229.772 6   1918618.72121        17.000           1.281
  20380395.984    -2689666.290 7  -2030816.85923        26.000           2.625
  20573845.461    -3768450.987 7  -2818459.96423        25.250           3.469
  23497003.203     4484889.998 5   3494710.38721        11.750           0.563
  23453430.820    -4334109.089 5  -3165897.28621        11.500           0.469
 91  7  2  2 32 15.0000000  0  5G16G 3G17G20G23
  22712182.664     2489743.983 6   1940058.33021        17.000           1.406
  20376777.422    -2708706.894 7  -2045653.69823        26.250           2.594
  20568430.086    -3796918.868 7  -2840642.71524        25.750           3.656
  23505055.461     4527168.793 6   3527654.77221        12.750           0.438
  23440999.938    -4399430.056 5  -3216796.64321        11.250           0.500
 91  7  2  2 32 30.0000000  0  5G16G 3G17G20G23
  22717428.680     2517342.479 6   1961563.62021        17.250           1.313
  20373168.578    -2727660.929 7  -2060423.07223        25.750           2.594
  20563025.422    -3825306.024 7  -2862762.56624        25.250           3.594
  23513103.750     4569474.796 6   3560620.40721        12.250           0.438
  23428578.305    -4464708.290 6  -3267662.65021        12.250           0.688
 91  7  2  2 32 45.0000000  0  5G16G 3G17G20G23
  22722699.063     2545025.404 6   1983134.70021        17.500           1.375
  20369581.320    -2746527.820 7  -2075124.54623        26.500           2.594
  20557640.023    -3853612.205 7  -2884819.32424        25.500           3.656
  23521159.094     4611807.969 6   3593607.18221        12.500           0.500
  23416165.328    -4529943.230 5  -3318494.93421        11.750           0.594
 91  7  2  2 32 59.9990000  0  5G16G 3G17G20G23
  22727987.909     2572796.810 6   2004774.72621        18.000           1.438
  20366004.050    -2765299.989 7  -2089752.21123        25.500           2.563
  20552266.870    -3881829.011 7  -2906806.42924        24.750           3.688
  23529221.964     4654171.484 6   3626617.58021        12.250           0.594
  23403761.698    -4595123.914 5  -3369284.97821        11.750           0.594
 91  7  2  2 33 14.9990000  0  5G16G 3G17G20G23
  22733285.495     2600665.009 6   2026490.16821        17.500           1.438
  20362453.855    -2783974.553 7  -2104303.82123        26.000           2.563
  20546916.558    -3909955.456 7  -2928723.13123        24.250           3.469
  23537294.597     4696575.377 6   3659659.45421        13.750           0.531
  23391366.050    -4660253.864 6  -3420035.45821        12.000           0.531
 91  7  2  2 33 29.9990000  0  5G16G 3G17G20G23
  22738607.284     2628613.239 6   2048267.97721        18.000           1.313
  20358913.050    -2802565.054 7  -2118789.92223        25.250           2.531
  20541582.480    -3938004.726 7  -2950579.68824        24.750           3.688
  23545366.534     4739001.805 6   3692718.90721        12.250           0.531
  23378981.933    -4725343.519 5  -3470754.56821        11.250           0.594
 91  7  2  2 33 44.9990000  0  5G16G 3G17G20G23
  22743932.159     2656629.938 6   2070099.14321        17.000           1.188
  20355391.784    -2821082.368 7  -2133218.99823        26.250           2.500
  20536254.362    -3965987.702 7  -2972384.59824        24.750           3.656
  23553438.386     4781439.171 5   3725786.83721        10.500           0.406
  23366603.870    -4790403.508 6  -3521450.50321        12.750           0.656
 91  7  2  2 33 59.9990000  0  5G16G 3G17G20G23
  22749287.167     2684725.549 6   2091991.79821        17.500           1.188
  20351883.128    -2839515.598 7  -2147582.55023        26.000           2.563
  20530946.870    -3993893.617 7  -2994129.45824        25.750           3.719
  23561516.323     4823897.982 5   3758871.51921        10.000           0.406
  23354227.253    -4855422.673 6  -3572114.67621        12.500           0.594
 91  7  2  2 34 14.9990000  0  5G16G 3G17G20G23
  22754647.105     2712897.607 6   2113944.01621        19.250           1.125
  20348391.261    -2857866.624 7  -2161882.05623        25.500           2.594
  20525648.089    -4021724.723 7  -3015816.02024        24.500           3.656
  23569602.386     4866375.705 5   3791970.95121        11.000           0.406
  23341866.284    -4920403.016 6  -3622748.61021        13.000           0.625
 91  7  2  2 34 29.9990000  0  5G16G 3G17G20G23
  22760020.808     2741156.692 6   2135964.07021        18.500           1.188
  20344917.190    -2876123.795 7  -2176108.42723        25.250           2.594
  20520370.339    -4049469.820 7  -3037435.57024        25.250           3.719
  23577693.956     4908883.224 5   3825093.56221        10.000           0.531
  23329503.136    -4985333.076 5  -3673343.35521        11.250           0.625
 91  7  2  2 34 44.9990000  0  5G16G 3G17G20G23
  22765415.206     2769504.867 6   2158053.53621        18.500           1.125
  20341461.112    -2894284.987 7  -2190260.00223        25.500           2.625
  20515106.206    -4077126.771 7  -3058986.44024        25.000           3.750
  23585784.620     4951422.498 5   3858240.87621        10.250           0.406
  23317162.808    -5050210.441 6  -3723897.02021        12.750           0.625
 91  7  2  2 34 59.9990000  0  5G16G 3G17G20G23
  22770833.722     2797959.743 6   2180226.13821        18.250           1.219
  20338026.831    -2912332.463 7  -2204322.96523        25.750           2.656
  20509865.308    -4104677.901 7  -3080454.83424        25.750           3.656
  23593892.503     4994010.578 5   3891426.28921        11.250           0.375
  23304827.120    -5115017.117 5  -3774395.60421        11.750           0.531
 91  7  2  2 35 14.9990000  0  5G16G 3G17G20G23
  22776263.847     2826507.884 6   2202471.41121        17.750           1.094
  20334609.995    -2930278.796 7  -2218307.12423        25.500           2.563
  20504641.675    -4132136.109 7  -3101850.82624        26.750           3.688
  23601999.417     5036634.288 5   3924639.49021        10.250           0.531
  23292505.862    -5179765.691 5  -3824848.93221        11.250           0.656
 91  7  2  2 35 29.9990000  0  5G16G 3G17G20G23
  22781713.800     2855135.037 6   2224778.26021        17.750           1.219
  20331212.198    -2948137.823 7  -2232223.24823        25.750           2.594
  20499427.550    -4159515.593 7  -3123185.47224        26.250           3.781
  23610114.776     5079279.261 5   3957869.19321        10.500           0.500
  23280189.245    -5244469.857 5  -3875267.64221        11.250           0.688
 91  7  2  2 35 44.9990000  0  5G16G 3G17G20G23
  22787171.425     2883836.819 6   2247143.25121        17.250           1.250
  20327828.651    -2965913.305 7  -2246074.27423        26.000           2.719
  20494232.214    -4186820.179 7  -3144461.75924        25.750           3.844
  23618234.105     5121941.322 5   3991112.22121        11.250           0.563
  23267889.042    -5309133.252 5  -3925654.58921        11.500           0.688
 91  7  2  2 35 59.9990000  0  5G16G 3G17G20G23
  22792655.487     2912632.797 6   2269581.63221        17.250           1.281
  20324468.394    -2983585.375 7  -2259844.71023        26.250           2.750
  20489053.167    -4214030.067 7  -3165664.26424        25.250           3.906
  23626361.620     5164639.752 5   4024383.60521        10.750           0.469
  23255597.769    -5373736.093 6  -3975994.36321        12.250           0.625
 91  7  2  2 36 14.9990000  0  5G16G 3G17G20G23
  22798152.776     2941513.714 6   2292086.20621        16.750           1.281
  20321123.245    -3001162.228 7  -2273540.96523        26.250           2.719
  20483894.612    -4241154.215 7  -3186799.95424        26.000           3.813
  23634490.745     5207365.741 5   4057676.44621        10.500           0.344
  23243313.081    -5438286.591 5  -4026293.33921        11.750           0.531
 91  7  2  2 36 29.9990000  0  5G16G 3G17G20G23
  22803659.042     2970481.504 6   2314658.47821        16.500           1.219
  20317794.620    -3018642.042 7  -2287161.58923        25.750           2.656
  20478749.870    -4268190.379 7  -3207867.07624        26.250           3.781
  23642625.198     5250120.549 5   4090991.75621        11.000           0.313
  23231038.995    -5502782.635 6  -4076549.89821        12.250           0.656
 91  7  2  2 36 44.9990000  0  5G16G 3G17G20G23
  22809192.003     2999535.695 6   2337298.06821        17.000           1.188
  20314489.667    -3036024.686 7  -2300706.51023        26.250           2.719
  20473621.058    -4295138.933 7  -3228865.94124        26.000           3.625
  23650767.659     5292903.731 5   4124329.19021        10.750           0.469
  23218772.894    -5567224.086 6  -4126763.89621        12.250           0.688
 91  7  2  2 36 59.9990000  0  5G16G 3G17G20G23
  22814736.292     3028681.131 6   2360008.76421        16.750           1.156
  20311201.440    -3053304.669 7  -2314171.43023        27.000           2.656
  20468509.456    -4321994.393 7  -3249792.25824        25.750           3.500
  23658916.894     5335720.222 5   4157692.57021        10.250           0.563
  23206521.347    -5631605.356 5  -4176931.01921        11.250           0.688
 91  7  2  2 37 14.9990000  0  5G16G 3G17G20G23
  22820299.886     3057903.410 6   2382779.33921        18.000           1.188
  20307928.792    -3070496.108 7  -2327567.35723        26.250           2.813
  20463413.292    -4348771.101 7  -3270657.21524        25.500           3.719
  23667064.073     5378555.601 5   4191070.65421         9.000           0.500
  23194280.065    -5695940.417 6  -4227062.12821        12.250           0.594
 91  7  2  2 37 29.9990000  0  5G16G 3G17G20G23
  22825871.300     3087205.214 6   2405611.88921        17.500           1.125
  20304672.558    -3087595.270 7  -2340891.37223        25.750           2.750
  20458335.042    -4375466.082 7  -3291458.49324        25.500           3.719
  23675223.612     5421412.806 5   4224465.70421         9.250           0.438
  23182050.315    -5760225.903 6  -4277154.61021        12.000           0.750
 91  7  2  2 37 44.9990000  0  5G16G 3G17G20G23
  22831463.112     3116589.649 6   2428508.82221        17.750           1.156
  20301438.151    -3104598.984 7  -2354141.01523        26.250           2.750
  20453270.698    -4402075.891 7  -3312193.40224        25.500           3.813
  23683385.362     5464294.629 5   4257879.98121        10.750           0.469
  23169823.019    -5824457.959 5  -4327205.46821        11.750           0.781
 91  7  2  2 37 59.9990000  0  5G16G 3G17G20G23
  22837070.972     3146043.359 6   2451459.73921        17.500           1.094
  20298218.308    -3121520.120 7  -2367326.31423        26.000           2.750
  20448219.745    -4428613.759 7  -3332872.24524        26.000           3.938
  23691548.597     5507187.540 5   4291302.92021        10.250           0.375
  23157608.159    -5888649.605 6  -4377224.81821        12.000           0.719
 91  7  2  2 38 14.9990000  0  5G16G 3G17G20G23
  22842689.409     3175574.521 6   2474471.01321        17.250           1.063
  20295018.597    -3138349.737 7  -2380440.29223        26.750           2.781
  20443186.808    -4455071.133 7  -3353488.36724        26.250           3.750
  23699710.237     5550099.841 5   4324740.96021         9.000           0.438
  23145405.019    -5952792.123 5  -4427205.90421        11.500           0.625
 91  7  2  2 38 29.9990000  0  5G16G 3G17G20G23
  22848324.065     3205192.076 6   2497549.59721        16.750           1.156
  20291832.550    -3155079.021 7  -2393476.10323        26.750           2.781
  20438171.183    -4481438.882 7  -3374034.65324        26.250           3.719
  23707885.003     5593040.102 5   4358200.76321         9.250           0.406
  23133206.425    -6016876.239 5  -4477141.48321        11.250           0.719
 91  7  2  2 38 44.9990000  0  5G16G 3G17G20G23
  22853975.362     3234892.663 6   2520692.87921        16.500           1.313
  20288670.026    -3171710.186 7  -2406435.45023        26.500           2.781
  20433168.237    -4507719.813 7  -3394513.28924        25.250           3.719
  23716054.183     5636005.013 5   4391679.75221        10.250           0.438
  23121029.448    -6080904.382 6  -4527033.43421        13.000           0.688
 91  7  2  2 38 59.9990000  0  5G16G 3G17G20G23
  22859644.464     3264678.540 6   2543902.61621        16.250           1.219
  20285523.706    -3188241.041 7  -2419316.63223        26.500           2.750
  20428180.144    -4533911.939 7  -3414922.73524        25.500           3.906
  23724239.120     5678996.854 5   4425179.79521        11.750           0.531
  23108854.026    -6144873.929 5  -4576879.73621        11.750           0.688
 91  7  2  2 39 14.9990000  0  5G16G 3G17G20G23
  22865328.839     3294554.150 6   2567182.27221        16.500           1.250
  20282398.183    -3204666.202 7  -2432115.45623        25.750           2.844
  20423217.370    -4560010.157 7  -3435258.99724        27.000           3.906
  23732431.901     5722020.250 5   4458704.37121        10.750           0.406
  23096685.800    -6208779.606 5  -4626676.27221        11.750           0.625
 91  7  2  2 39 29.9990000  0  5G16G 3G17G20G23
  22871031.737     3324521.069 6   2590533.09121        16.750           1.250
  20279293.347    -3220983.494 7  -2444830.22723        25.250           2.844
  20418271.714    -4586012.511 7  -3455520.56324        27.500           4.031
  23740619.089     5765076.834 5   4492254.80321        10.000           0.375
  23084537.503    -6272619.151 5  -4676421.28521        11.750           0.813
 91  7  2  2 39 44.9990000  0  5G16G 3G17G20G23
  22876752.792     3354555.575 6   2613936.57421        16.750           1.188
  20276203.034    -3237216.298 7  -2457479.16823        25.000           2.750
  20413334.284    -4611942.149 7  -3475725.46124        26.250           4.031
  23748814.675     5808142.758 5   4525812.52621         9.750           0.313
  23072405.245    -6336415.662 6  -4726132.74121        13.250           0.500
 91  7  2  2 39 59.9990000  0  5G16G 3G17G20G23
  22882480.589     3384669.790 6   2637402.16521        15.500           1.094
  20273130.980    -3253351.668 7  -2470052.18123        25.500           2.844
  20408413.253    -4637786.732 7  -3495864.09624        25.750           3.938
  23757015.870     5851230.065 5   4559386.94821        11.500           0.250
  23060275.355    -6400156.442 6  -4775800.79921        12.750           0.719
 91  7  2  2 40 14.9990000  0  5G16G 3G17G20G23
  22888231.683     3414864.797 6   2660930.69721        16.000           1.156
  20270079.878    -3269388.390 7  -2482548.32723        26.000           2.906
  20403516.409    -4663544.997 7  -3515935.45924        25.250           3.906
  23765219.237     5894339.834 5   4592978.85521        11.500           0.375
  23048155.253    -6463839.943 6  -4825424.20921        13.000           0.656
 91  7  2  2 40 29.9990000  0  5G16G 3G17G20G23
  22893988.386     3445137.247 6   2684519.58321        16.000           1.250
  20267047.487    -3285329.178 7  -2494969.71723        26.250           2.875
  20398626.347    -4689220.197 7  -3535942.10324        25.000           3.781
  23773427.097     5937468.377 5   4626585.37121        10.750           0.406
  23036044.058    -6527469.064 6  -4875005.25421        13.000           0.656
 91  7  2  2 40 44.9990000  0  5G16G 3G17G20G23
  22899760.019     3475490.577 6   2708171.48521        16.000           1.188
  20264034.323    -3301170.602 7  -2507313.68523        25.500           2.750
  20393760.448    -4714808.818 7  -3555881.27524        26.500           3.781
  23781632.784     5980619.064 5   4660209.15221         8.500           0.531
  23023949.050    -6591039.999 6  -4924540.96821        13.250           0.813
 91  7  2  2 40 59.9990000  0  5G16G 3G17G20G23
  22905554.800     3505926.132 6   2731887.47421        17.000           1.188
  20261037.792    -3316910.029 7  -2519578.16823        25.750           2.750
  20388907.847    -4740309.014 7  -3575751.54424        26.500           3.719
  23789851.214     6023793.689 5   4693851.55421         8.500           0.344
  23011860.362    -6654550.281 6  -4974029.40021        12.750           0.594
 91  7  2  2 41 14.9990000  0  5G16G 3G17G20G23
  22911355.612     3536421.706 6   2755650.23221        16.250           1.000
  20258058.815    -3332569.417 7  -2531780.29023        25.750           2.781
  20384067.800    -4765742.479 7  -3595569.81624        26.500           3.844
  23798072.745     6066969.864 5   4727495.18121        10.000           0.469
  22999784.230    -6718021.602 6  -5023487.49221        13.500           0.781
 91  7  2  2 41 29.9990000  0  5G16G 3G17G20G23
  22917179.355     3567003.696 6   2779480.32221        16.250           1.000
  20255100.659    -3348121.840 7  -2543899.05923        25.750           2.813
  20379242.862    -4791082.822 7  -3615315.53824        25.750           3.750
  23806289.769     6110174.024 5   4761160.64221        11.000           0.313
  22987714.925    -6781427.276 6  -5072894.41121        12.250           0.781
 91  7  2  2 41 44.9990000  0  5G16G 3G17G20G23
  22923013.565     3597678.306 6   2803382.58021        16.000           0.969
  20252158.339    -3363560.736 7  -2555929.36523        25.750           2.844
  20374442.284    -4816323.608 7  -3634983.68224        26.250           3.656
  23814518.331     6153411.986 5   4794852.43521         9.500           0.531
  22975669.519    -6844760.426 6  -5122244.83021        13.500           0.781
 91  7  2  2 41 59.9990000  0  5G16G 3G17G20G23
  22928867.855     3628418.125 6   2827335.64421        16.500           1.031
  20249239.487    -3378913.405 7  -2567892.48623        26.000           2.781
  20369652.339    -4841492.059 7  -3654595.45424        26.250           3.625
  23822750.120     6196656.160 5   4828549.01821         8.750           0.406
  22963624.261    -6908048.129 6  -5171559.83421        13.750           0.750
 91  7  2  2 42 14.9990000  0  5G16G 3G17G20G23
  22934725.667     3659228.853 6   2851343.97521        16.000           1.000
  20246335.792    -3394173.318 7  -2579783.32623        25.750           2.813
  20364880.667    -4866581.826 7  -3674145.90524        26.750           3.719
  23830982.073     6239912.417 5   4862255.01821         8.250           0.375
  22951593.589    -6971283.960 6  -5220834.41521        13.500           0.750
 91  7  2  2 42 29.9990000  0  5G16G 3G17G20G23
  22940608.261     3690121.386 6   2875416.03521        16.500           1.000
  20243451.019    -3409328.894 7  -2591592.86023        25.500           2.750
  20360121.862    -4891581.652 7  -3693626.27424        26.250           3.719
  23839219.964     6283191.622 5   4895978.92321        10.750           0.375
  22939568.698    -7034456.206 6  -5270059.46821        14.500           0.688
 91  7  2  2 42 44.9990000  0  5G16G 3G17G20G23
  22946497.183     3721088.155 6   2899545.95721        15.500           1.000
  20240584.605    -3424387.365 7  -2603326.73523        25.750           2.813
  20355379.292    -4916499.054 7  -3713042.42224        26.250           3.906
  23847454.034     6326486.325 5   4929714.95521        10.750           0.375
  22927557.269    -7097572.087 6  -5319240.60621        13.500           0.844
 91  7  2  2 42 59.9990000  0  5G16G 3G17G20G23
  22952408.144     3752121.132 6   2923727.45721        16.500           0.906
  20237738.034    -3439356.197 7  -2614990.76423        26.000           2.844
  20350651.034    -4941341.591 7  -3732400.24224        25.500           3.875
  23855695.487     6369788.403 5   4963456.67221        10.750           0.406
  22915555.698    -7160639.037 6  -5368383.56521        13.500           0.813
 91  7  2  2 43 14.9990000  0  5G16G 3G17G20G23
  22958325.894     3783235.924 6   2947972.71621        15.750           0.938
  20234907.128    -3454219.154 7  -2626572.28623        25.500           2.875
  20345942.894    -4966093.279 7  -3751687.27124        26.750           3.938
  23863939.964     6413113.533 5   4997216.38721         9.500           0.281
  22903570.401    -7223640.518 6  -5417475.56521        13.750           0.906
 91  7  2  2 43 29.9990000  0  5G16G 3G17G20G23
  22964257.628     3814414.373 6   2972267.58021        14.750           0.938
  20232098.620    -3468994.153 7  -2638085.27323        26.500           2.781
  20341245.745    -4990772.309 7  -3770917.68724        26.250           3.969
  23872181.589     6456443.493 5   5030979.82821         8.250           0.344
  22891588.542    -7286594.375 6  -5466530.41921        14.000           0.875
 91  7  2  2 43 44.9990000  0  5G16G 3G17G20G23
  22970204.526     3845664.468 6   2996618.25521        14.250           0.906
  20229303.440    -3483672.335 7  -2649522.82223        26.500           2.781
  20336563.237    -5015370.619 7  -3790085.20124        26.000           4.000
  23880430.136     6499786.123 5   5064753.13721         9.500           0.250
  22879620.378    -7349492.092 6  -5515541.55521        14.500           0.750
 91  7  2  2 43 59.9990000  0  5G16G 3G17G20G23
  22976165.964     3876990.514 6   3021028.11421        14.250           0.875
  20226528.386    -3498249.491 7  -2660881.64523        26.250           2.813
  20331899.964    -5039883.432 7  -3809186.07824        25.750           3.906
  23888685.120     6543145.520 5   5098539.56221        11.250           0.375
  22867660.909    -7412328.842 6  -5564505.17921        12.750           0.781
 91  7  2  2 44 14.9990000  0  5G16G 3G17G20G23
  22982140.042     3908384.399 6   3045490.85121        15.000           0.875
  20223775.714    -3512732.700 7  -2672167.26323        26.750           2.844
  20327251.230    -5064318.275 7  -3828226.20824        25.250           4.000
  23896938.112     6586513.818 5   5132332.90921         9.750           0.406
  22855718.573    -7475112.281 6  -5613427.22621        14.500           0.781
 91  7  2  2 44 29.9990000  0  5G16G 3G17G20G23
  22988129.276     3939856.737 6   3070014.72321        16.000           0.844
  20221038.323    -3527110.877 7  -2683371.04223        26.500           2.844
  20322616.190    -5088664.273 7  -3847197.11524        25.750           3.969
  23905192.886     6629901.760 5   5166141.55921         8.500           0.344
  22843777.386    -7537830.874 6  -5662298.78921        13.750           0.813
 91  7  2  2 44 44.9990000  0  5G16G 3G17G20G23
  22994134.175     3971399.472 6   3094593.45221        16.250           0.875
  20218318.495    -3541391.782 7  -2694499.01923        25.750           2.813
  20317997.151    -5112929.231 7  -3866104.86924        25.500           3.938
  23913454.230     6673301.202 4   5199959.12421         7.250           0.438
  22831857.323    -7600492.212 6  -5711125.72621        14.250           0.875
 91  7  2  2 44 59.9990000  0  5G16G 3G17G20G23
  23000147.284     4003020.635 6   3119233.29721        15.250           0.906
  20215623.901    -3555566.739 7  -2705544.44423        26.250           2.750
  20313395.823    -5137105.119 7  -3884943.22324        26.250           3.969
  23921710.386     6716719.974 5   5233791.75521         8.000           0.281
  22819943.776    -7663087.640 6  -5759901.31821        14.000           0.844
 91  7  2  2 45 14.9990000  0  5G16G 3G17G20G23
  23006179.472     4034717.705 6   3143932.27521        15.000           0.969
  20212945.581    -3569637.957 7  -2716509.03323        26.000           2.656
  20308813.784    -5161193.895 7  -3903713.68724        26.500           3.844
  23929979.151     6760155.526 5   5267637.52721         9.250           0.344
  22808044.011    -7725619.144 6  -5808627.07121        13.750           0.844
 91  7  2  2 45 29.9990000  0  5G16G 3G17G20G23
  23012226.144     4066482.378 6   3168683.92921        14.500           0.938
  20210287.003    -3583613.208 7  -2727398.83923        26.250           2.750
  20304245.034    -5185203.725 7  -3922422.63624        26.500           3.813
  23938250.003     6803599.521 5   5301489.84321         8.750           0.406
  22796158.073    -7788094.675 6  -5857309.21221        14.250           0.938
 91  7  2  2 45 44.9990000  0  5G16G 3G17G20G23
  23018280.472     4098306.673 6   3193482.03621        15.000           1.000
  20207644.948    -3597499.893 7  -2738219.63723        26.250           2.813
  20299693.792    -5209142.207 7  -3941075.99624        26.500           3.656
  23946511.526     6847043.823 5   5335342.37521         8.250           0.406
  22784275.847    -7850521.406 6  -5905953.35321        14.000           0.906
 91  7  2  2 45 59.9990000  0  5G16G 3G17G20G23
  23024352.362     4130192.130 6   3218327.82521        15.000           1.063
  20205016.948    -3611295.921 7  -2748969.79323        26.000           2.781
  20295147.667    -5233007.550 7  -3959672.36024        26.000           3.719
  23954778.198     6890490.088 4   5369196.44721         7.250           0.375
  22772404.308    -7912897.363 6  -5954557.90721        14.000           0.813
 91  7  2  2 46 14.9990000  0  5G16G 3G17G20G23
  23030432.269     4162160.271 6   3243238.01721        14.250           1.219
  20202414.644    -3624979.452 7  -2759632.28623        26.250           2.750
  20290624.948    -5256777.953 7  -3978194.74924        26.500           3.688
  23963059.097     6933959.723 5   5403068.68321         8.750           0.344
  22760548.769    -7975200.397 6  -6003105.65921        14.750           0.906
 91  7  2  2 46 29.9990000  0  5G16G 3G17G20G23
  23036532.792     4194206.750 6   3268209.25421        13.750           1.156
  20199831.448    -3638554.311 7  -2770210.09423        26.250           2.781
  20286120.230    -5280457.382 7  -3996646.24524        27.500           3.719
  23971330.058     6977448.346 5   5436955.78521        10.250           0.281
  22748710.980    -8037434.120 6  -6051599.39321        14.500           0.938
 91  7  2  2 46 44.9990000  0  5G16G 3G17G20G23
  23042639.011     4226321.430 6   3293233.63821        13.250           1.156
  20197269.362    -3652030.388 7  -2780710.93823        26.500           2.719
  20281627.565    -5304055.987 7  -4015034.76224        26.500           3.813
  23979609.042     7020945.731 5   5470849.69721        11.000           0.344
  22736876.542    -8099608.310 6  -6100046.74521        14.750           0.906
 91  7  2  2 46 59.9990000  0  5G16G 3G17G20G23
  23048767.894     4258513.285 6   3318318.15421        13.500           1.094
  20194722.745    -3665397.609 7  -2791126.95123        26.500           2.781
  20277155.753    -5327564.314 7  -4033352.93924        26.500           3.781
  23987889.769     7064461.065 5   5504757.62521        10.500           0.531
  22725054.480    -8161713.331 6  -6148440.18721        14.250           0.938
 91  7  2  2 47 14.9990000  0  5G16G 3G17G20G23
  23054907.183     4290776.603 6   3343458.35421        13.750           1.000
  20192197.667    -3678661.607 7  -2801462.53923        26.500           2.750
  20272696.190    -5350988.090 7  -4051605.22724        25.750           3.719
  23996177.073     7107988.599 5   5538675.03021         8.750           0.375
  22713253.776    -8223754.399 6  -6196783.81321        15.250           0.906
 91  7  2  2 47 29.9990000  0  5G16G 3G17G20G23
  23061058.167     4323115.958 6   3368657.79721        13.750           0.938
  20189695.464    -3691817.028 7  -2811713.51723        27.000           2.688
  20268257.753    -5374322.163 7  -4069787.62324        26.000           3.719
  24004458.964     7151532.865 5   5572605.45421         7.500           0.344
  22701456.823    -8285726.182 6  -6245073.43521        14.750           0.875
 91  7  2  2 47 44.9990000  0  5G16G 3G17G20G23
  23067231.355     4355533.074 6   3393917.86421        14.250           0.875
  20187213.144    -3704861.836 7  -2821878.30223        26.250           2.844
  20263837.644    -5397564.449 7  -4087898.48824        26.500           3.781
  24012750.378     7195095.538 5   5606550.22221         8.500           0.313
  22689681.245    -8347626.624 6  -6293307.46521        15.250           0.844
 91  7  2  2 47 59.9990000  0  5G16G 3G17G20G23
  23073414.058     4388009.809 6   3419224.37721        13.250           0.719
  20184750.417    -3717813.742 7  -2831970.69923        26.500           2.813
  20259425.058    -5420732.858 7  -4105951.79024        26.250           3.750
  24021036.597     7238658.291 5   5640495.07921         9.750           0.094
  22677910.933    -8409473.055 6  -6341499.41721        15.000           0.906
 91  7  2  2 48 14.9990000  0  5G16G 3G17G20G23
  23079598.831     4420553.055 6   3444582.72121        13.250           0.750
  20182300.823    -3730665.151 7  -2841984.78823        26.000           2.813
  20255034.933    -5443820.039 7  -4123941.80224        27.250           3.844
  24029328.589     7282228.087 5   5674445.45321         8.500           0.219
  22666150.597    -8471258.075 6  -6389643.52621        14.250           0.938
 91  7  2  2 48 29.9990000  0  5G16G 3G17G20G23
  23085804.464     4453166.005 6   3469995.37221        13.500           0.750
  20179877.714    -3743412.502 7  -2851917.78623        26.500           2.844
  20250655.839    -5466822.707 7  -4141865.95224        26.750           3.906
  24037622.136     7325808.142 4   5708403.80921         7.000           0.219
  22654409.386    -8532977.872 6  -6437736.78921        15.500           0.875
 91  7  2  2 48 44.9990000  0  5G16G 3G17G20G23
  23092023.511     4485848.558 6   3495462.25921        14.000           0.719
  20177472.315    -3756055.362 7  -2861769.36823        26.500           2.813
  20246294.440    -5489740.626 7  -4159724.07424        26.250           3.844
  24045915.753     7369398.342 4   5742370.00921         6.500           0.188
  22642678.347    -8594632.078 6  -6485778.96121        15.250           0.906
 91  7  2  2 48 59.9990000  0  5G16G 3G17G20G23
  23098263.230     4518602.195 6   3520984.54521        14.250           0.844
  20175087.722    -3768591.724 7  -2871537.96523        26.750           2.844
  20241948.503    -5512572.396 7  -4177515.06424        25.750           3.813
  24054216.464     7412999.836 5   5776345.01821         7.750           0.313
  22630956.589    -8656218.749 6  -6533768.50421        15.500           0.938
 91  7  2  2 49 14.9990000  0  5G16G 3G17G20G23
  23104507.448     4551436.745 6   3546569.88021        13.750           0.875
  20172722.190    -3781011.386 7  -2881215.62823        26.000           2.781
  20237623.128    -5535307.496 7  -4195230.72224        26.500           3.813
  24062524.386     7456622.523 5   5810336.55621         8.500           0.219
  22619250.987    -8717727.196 6  -6581697.09521        15.500           0.938
 91  7  2  2 49 29.9990000  0  5G16G 3G17G20G23
  23110771.894     4584337.276 6   3572206.61621        13.250           0.844
  20170379.956    -3793328.751 7  -2890813.57823        26.750           2.906
  20233310.175    -5557960.583 7  -4212882.47224        26.750           3.656
  24070822.214     7500251.583 5   5844333.09221         8.250           0.219
  22607557.815    -8779171.934 6  -6629576.04421        14.500           0.875
 91  7  2  2 49 44.9990000  0  5G16G 3G17G20G23
  23117045.058     4617295.887 6   3597888.60921        14.500           0.750
  20168053.112    -3805551.414 7  -2900337.73223        26.000           2.750
  20229016.550    -5580539.390 7  -4230476.34224        27.000           3.531
  24079117.245     7543879.261 4   5878328.52721         6.500           0.219
  22595877.550    -8840560.436 6  -6677411.17321        15.250           0.969
 91  7  2  2 49 59.9990000  0  5G16G 3G17G20G23
  23123326.089     4650317.178 6   3623619.44821        14.250           0.781
  20165746.933    -3817673.690 7  -2909783.66923        26.750           2.875
  20224735.659    -5603038.811 7  -4248008.35024        26.750           3.563
  24087422.433     7587510.246 4   5912326.53621         6.500           0.156
  22584207.847    -8901887.371 6  -6725198.32121        15.250           0.938
 91  7  2  2 50 14.9990000  0  5G16G 3G17G20G23
  23129621.206     4683404.997 6   3649402.12221        14.250           0.719
  20163457.792    -3829691.855 7  -2919148.47123        26.250           2.813
  20220467.745    -5625455.342 7  -4265475.77524        26.250           3.563
  24095725.097     7631147.851 5   5946329.70721         7.500           0.281
  22572548.862    -8963148.481 6  -6772934.18921        14.750           0.969
 91  7  2  2 50 29.9990000  0  5G16G 3G17G20G23
  23135933.105     4716567.853 6   3675243.26421        15.000           0.781
  20161192.776    -3841596.876 7  -2928425.10823        26.500           2.813
  20216218.769    -5647780.114 7  -4282871.69624        25.500           3.656
  24104033.636     7674800.409 5   5980344.53121         8.250           0.313
  22560907.144    -9024334.849 6  -6820611.79821        15.750           0.969
 91  7  2  2 50 44.9990000  0  4G16G 3G17G23
  23142255.925     4749789.462 6   3701130.20021        15.000           0.719
  20158946.980    -3853404.629 7  -2937625.96023        26.500           2.781
  20211988.042    -5670028.924 7  -4300208.43124        26.000           3.656
  22549271.956    -9085461.994 6  -6868243.28021        15.000           1.031
 91  7  2  2 50 59.9990000  0  4G16G 3G17G23
  23148585.808     4783065.218 6   3727059.33721        14.250           0.719
  20156716.136    -3865118.876 7  -2946753.94323        26.250           2.781
  20207767.276    -5692205.821 7  -4317489.12524        26.750           3.656
  22537650.253    -9146533.772 6  -6915831.60821        14.000           1.000
 91  7  2  2 51 14.9990000  0  4G16G 3G17G23
  23154929.175     4816404.271 6   3753037.76921        14.000           0.813
  20154505.605    -3876730.162 7  -2955801.69423        26.000           2.719
  20203560.464    -5714301.533 7  -4334706.55824        26.500           3.594
  22526041.253    -9207540.660 6  -6963369.36021        15.500           1.031
 91  7  2  2 51 29.9990000  0  4G16G 3G17G23
  23161289.011     4849810.443 6   3779068.51421        13.750           0.844
  20152318.894    -3888234.269 7  -2964765.93523        26.000           2.844
  20199373.901    -5736311.908 7  -4351857.49524        27.250           3.563
  22514447.878    -9268478.298 6  -7010853.16821        15.250           0.875
 91  7  2  2 51 44.9990000  0  4G16G 3G17G23
  23167656.534     4883284.432 6   3805152.11221        14.000           0.781
  20150150.972    -3899629.906 7  -2973645.65023        26.750           2.813
  20195201.105    -5758235.988 7  -4368941.18724        26.500           3.531
  22502860.644    -9329345.337 6  -7058281.96521        15.250           1.063
 91  7  2  2 51 59.9990000  0  4G16G 3G17G23
  23174041.925     4916825.193 6   3831287.73521        13.750           0.719
  20148004.323    -3910917.433 7  -2982441.12623        26.750           2.750
  20191044.644    -5780074.794 7  -4385958.43624        26.000           3.594
  22491292.503    -9390142.035 6  -7105655.95021        15.000           1.094
 91  7  2  2 52 14.9990000  0  4G16G 3G17G23
  23180430.292     4950434.159 6   3857476.50621        12.750           0.719
  20145873.948    -3922095.179 7  -2991151.06123        26.250           2.875
  20186907.503    -5801826.468 7  -4402907.78624        26.500           3.594
  22479739.706    -9450866.915 6  -7152973.95821        15.500           1.063
 91  7  2  2 52 29.9990000  0  4G16G 3G17G23
  23186840.542     4984094.646 6   3883705.41421        12.500           0.750
  20143766.081    -3933179.363 7  -2999788.08923        26.000           2.813
  20182779.690    -5823507.382 7  -4419802.00224        26.250           3.750
  22468194.995    -9511536.099 6  -7200248.57721        15.750           1.063
 91  7  2  2 52 44.9990000  0  4G16G 3G17G23
  23193257.698     5017811.924 6   3909978.57421        12.750           0.750
  20141673.925    -3944164.305 7  -3008347.77923        25.250           2.750
  20178669.409    -5845111.999 7  -4436636.76024        26.250           3.813
  22456661.401    -9572143.500 6  -7247475.05321        16.000           1.156
 91  7  2  2 52 59.9990000  0  4G16G 3G17G23
  23199688.190     5051593.092 6   3936301.52421        12.750           0.781
  20139606.261    -3955042.183 7  -3016824.05223        25.500           2.781
  20174578.558    -5866632.755 7  -4453406.17624        27.000           3.719
  22445143.831    -9632681.323 6  -7294647.31421        15.750           1.125
 91  7  2  2 53 14.9990000  0  4G16G 3G17G23
  23206125.800     5085431.727 6   3962669.25821        12.500           0.844
  20137554.948    -3965818.724 7  -3025221.35823        25.750           2.781
  20170496.253    -5888075.846 7  -4470115.06824        26.000           3.750
  22433634.714    -9693155.296 6  -7341769.82221        17.000           1.156
 91  7  2  2 53 29.9990000  0  4G16G 3G17G23
  23212570.636     5119327.360 6   3989081.40321        12.500           0.969
  20135524.409    -3976494.559 7  -3033540.19123        26.250           2.750
  20166427.940    -5909441.949 7  -4486763.97524        25.250           3.594
  22422137.565    -9753565.916 6  -7388842.95121        17.000           1.125
 91  7  2  2 53 44.9990000  0  4G16G 3G17G23
  23219037.831     5153288.655 6   4015544.70021        13.250           0.844
  20133513.386    -3987060.197 7  -3041773.15523        26.250           2.844
  20162377.995    -5930721.707 7  -4503345.60024        25.750           3.625
  22410653.073    -9813903.590 6  -7435859.26921        15.750           1.094
 91  7  2  2 53 59.9990000  0  4G16G 3G17G23
  23225513.870     5187319.433 6   4042062.16221        13.250           0.938
  20131524.620    -3997511.306 7  -3049916.87823        25.500           2.688
  20158345.589    -5951911.178 7  -4519856.86724        26.250           3.656
  22399186.636    -9874164.125 6  -7482815.45121        16.250           1.125
 91  7  2  2 54 14.9990000  0  4G16G 3G17G23
  23231997.620     5221410.379 6   4068626.47621        13.250           1.063
  20129554.128    -4007856.774 7  -3057978.28623        24.500           2.688
  20154329.417    -5973019.365 7  -4536304.80124        26.250           3.688
  22387735.690    -9934356.091 6  -7529718.20921        17.500           1.188
 91  7  2  2 54 29.9990000  0  4G16G 3G17G23
  23238499.245     5255558.384 6   4095235.27321        13.750           0.969
  20127607.261    -4018099.342 7  -3065959.50223        25.750           2.719
  20150328.550    -5994048.899 7  -4552691.44124        26.000           3.750
  22376293.628    -9994481.978 6  -7576569.50221        16.750           1.125
 91  7  2  2 54 44.9990000  0  4G16G 3G17G23
  23245012.683     5289773.494 6   4121896.35521        13.750           0.750
  20125680.011    -4028228.207 7  -3073852.12323        25.000           2.719
  20146342.792    -6014989.753 7  -4569008.98824        25.750           3.781
  22364863.995   -10054531.363 6  -7623361.16121        16.250           1.094
 91  7  2  2 54 59.9990000  0  4G16G 3G17G23
  23251532.097     5324043.697 6   4148600.34921        13.750           0.688
  20123771.651    -4038255.241 7  -3081665.39923        25.500           2.656
  20142370.815    -6035853.431 7  -4585266.39324        24.500           3.813
  22353451.628   -10114515.595 6  -7670102.05521        17.000           1.188
 91  7  2  2 55 14.9990000  0  4G16G 3G17G23
  23258063.925     5358378.733 6   4175354.87721        13.250           0.563
  20121884.628    -4048170.202 7  -3089391.34123        24.250           2.813
  20138420.714    -6056630.004 7  -4601455.92724        26.000           3.750
  22342052.698   -10174424.572 6  -7716784.30421        17.750           1.156
 91  7  2  2 55 29.9990000  0  4G16G 3G17G23
  23264611.909     5392777.123 6   4202158.78321        14.000           0.469
  20120016.644    -4057974.216 7  -3097030.83123        24.750           2.750
  20134481.370    -6077320.808 7  -4617578.62124        25.750           3.594
  22330666.237   -10234259.193 6  -7763408.63321        16.500           1.188
 91  7  2  2 55 44.9990000  0  4G16G 3G17G23
  23271167.964     5427228.465 6   4229003.97121        14.000           0.438
  20118172.394    -4067676.527 7  -3104591.07723        25.000           2.688
  20130558.073    -6097935.750 7  -4633642.20224        25.750           3.531
  22319289.425   -10294028.962 6  -7809982.40421        16.750           1.156
 91  7  2  2 55 59.9990000  0  4G16G 3G17G23
  23277741.230     5461743.546 6   4255898.82121        13.750           0.469
  20116345.331    -4077266.363 7  -3112063.67623        24.500           2.688
  20126654.206    -6118463.693 7  -4649637.98724        26.500           3.500
  22307929.917   -10353722.758 6  -7856496.98121        17.000           1.156
 91  7  2  2 56 14.9990000  0  4G16G 3G17G23
  23284319.620     5496317.201 6   4282839.28721        13.250           0.594
  20114543.808    -4086748.339 7  -3119452.23523        24.500           2.750
  20122762.526    -6138909.858 7  -4665570.05524        26.000           3.500
  22296586.940   -10413345.326 6  -7902956.06721        17.250           1.125
 91  7  2  2 56 29.9990000  0  4G16G 3G17G23
  23290902.558     5530948.098 6   4309824.38421        12.500           0.531
  20112759.206    -4096123.386 7  -3126757.47323        25.000           2.813
  20118885.417    -6159275.569 7  -4681439.43524        25.750           3.594
  22285252.644   -10472897.520 6  -7949360.31721        17.000           1.188
 91  7  2  2 56 44.9990000  0  4G16G 3G17G23
  23297500.792     5565626.268 6   4336846.30221        12.000           0.656
  20110994.870    -4105401.044 7  -3133986.81823        25.500           2.813
  20115023.003    -6179570.033 7  -4697253.29524        25.250           3.719
  22273930.206   -10532388.541 6  -7995716.89121        17.000           1.250
 91  7  2  2 56 59.9990000  0  4G16G 3G17G23
  23304113.175     5600364.702 6   4363915.16121        13.250           0.719
  20109248.394    -4114567.996 7  -3141129.90023        24.750           2.750
  20111177.464    -6199780.174 7  -4713001.44724        26.000           3.750
  22262628.276   -10591805.068 6  -8042015.42721        17.500           1.125
 91  7  2  2 57 14.9990000  0  4G16G 3G17G23
  23310734.823     5635143.428 6   4391015.43121        13.250           0.625
  20107521.292    -4123643.470 7  -3148201.69923        24.500           2.875
  20107345.206    -6219925.576 7  -4728699.15624        26.250           3.719
  22251331.151   -10651166.328 6  -8088270.89921        17.250           1.188
 91  7  2  2 57 29.9990000  0  4G16G 3G17G23
  23317362.542     5669979.256 6   4418160.19521        13.250           0.625
  20105815.042    -4132610.167 7  -3155188.73923        25.500           2.781
  20103527.737    -6239989.018 7  -4744332.99624        26.250           3.594
  22240045.120   -10710455.046 6  -8134469.83421        16.000           1.281
 91  7  2  2 57 44.9990000  0  4G16G 3G17G23
  23323999.644     5704870.222 6   4445347.92821        12.750           0.625
  20104128.222    -4141469.474 7  -3162092.09923        25.000           2.844
  20099723.558    -6259972.052 7  -4759904.18624        26.000           3.594
  22228775.956   -10769672.380 6  -8180613.15721        16.250           1.156
 91  7  2  2 57 59.9990000  0  4G16G 3G17G23
  23330660.878     5739832.575 6   4472591.28721        13.000           0.563
  20102465.753    -4150204.908 7  -3168898.92623        24.500           2.844
  20095939.198    -6279858.593 7  -4775400.18324        26.000           3.625
  22217525.612   -10828801.658 6  -8226687.85521        16.750           1.250
 91  7  2  2 58 14.9990000  0  4G16G 3G17G23
  23337312.105     5774845.650 5   4499874.16221        11.500           0.625
  20100824.847    -4158837.030 7  -3175625.26023        25.500           2.719
  20092170.097    -6299668.915 7  -4790836.79324        25.250           3.719
  22206289.589   -10887862.989 6  -8272709.62121        17.250           1.219
 91  7  2  2 58 29.9990000  0  4G16G 3G17G23
  23343991.487     5809907.531 5   4527195.05921        11.750           0.781
  20099201.550    -4167366.873 7  -3182271.89523        25.250           2.813
  20088413.487    -6319404.748 7  -4806215.36024        25.500           3.719
  22195059.222   -10946857.881 6  -8318679.60621        17.500           1.094
 91  7  2  2 58 44.9990000  0  4G16G 3G17G23
  23350674.487     5845038.899 5   4554570.10821        11.750           0.719
  20097601.605    -4175772.948 7  -3188822.08223        25.000           2.719
  20084679.573    -6339045.027 7  -4821519.46724        27.250           3.719
  22183850.222   -11005765.123 6  -8364581.30421        16.750           1.219
 91  7  2  2 58 59.9990000  0  4G16G 3G17G23
  23357364.222     5880217.361 5   4581981.85021        11.500           0.719
  20096021.917    -4184078.135 7  -3195293.66623        24.750           2.781
  20080954.956    -6358612.238 7  -4836766.63924        27.000           3.844
  22172660.198   -11064606.852 6  -8410431.94121        17.500           1.281
 91  7  2  2 59 14.9990000  0  4G16G 3G17G23
  23364072.105     5915455.580 5   4609440.15121        11.750           0.688
  20094462.956    -4192268.462 7  -3201675.74123        25.000           2.813
  20077247.011    -6378092.778 7  -4851946.27724        26.500           3.688
  22161470.972   -11123369.422 6  -8456220.90121        17.250           1.281
 91  7  2  2 59 29.9990000  0  4G16G 3G17G23
  23370787.933     5950734.409 6   4636930.11121        13.250           0.688
  20092921.175    -4200363.150 7  -3207983.29323        25.000           2.656
  20073551.269    -6397506.056 7  -4867073.50024        25.750           3.688
  22150299.925   -11182071.581 6  -8501962.78221        17.000           1.281
 91  7  2  2 59 44.9990000  0  4G16G 3G17G23
  23377512.347     5986084.034 6   4664475.22921        12.750           0.563
  20091405.894    -4208331.117 7  -3214192.10023        25.250           2.688
  20069876.651    -6416821.478 7  -4882124.47524        26.250           3.500
  22139147.894   -11240682.451 6  -8547633.53921        17.250           1.281
 91  7  2  2 59 59.9990000  0  4G16G 3G17G23
  23384254.315     6021492.239 6   4692066.00521        12.250           0.688
  20089912.683    -4216184.282 7  -3220311.45723        25.500           2.750
  20066216.644    -6436050.889 7  -4897108.41724        26.750           3.656
  22128011.026   -11299213.894 6  -8593242.39121        17.500           1.344
 91  7  2  3  0 14.9990000  0  4G16G 3G17G23
  23391001.565     6056948.314 6   4719694.08721        12.500           0.563
  20088437.417    -4223933.167 7  -3226349.55023        25.500           2.688
  20062573.605    -6455204.826 7  -4912033.55124        27.000           3.563
  22116886.230   -11357675.976 6  -8638797.22821        17.750           1.344
 91  7  2  3  0 29.9990000  0  4G16G 3G17G23
  23397756.136     6092442.459 6   4747351.84121        12.250           0.563
  20086982.198    -4231586.615 7  -3232313.28423        26.250           2.688
  20058942.245    -6474292.820 7  -4926907.30524        27.000           3.625
  22105771.745   -11416077.942 6  -8684305.19821        17.250           1.281
 91  7  2  3  0 44.9990000  0  4G16G 3G17G23
  23404519.745     6127985.570 6   4775047.72921        12.500           0.563
  20085545.698    -4239133.414 7  -3238193.90623        26.250           2.750
  20055321.722    -6493303.341 7  -4941720.69124        26.750           3.594
  22094669.065   -11474408.205 6  -8729757.30021        16.750           1.438
 91  7  2  3  0 59.9990000  0  4G16G 3G17G23
  23411296.987     6163585.085 6   4802787.57521        12.250           0.531
  20084128.940    -4246565.752 7  -3243985.34723        25.500           2.844
  20051723.261    -6512229.064 7  -4956468.00324        27.000           3.625
  22083584.620   -11532658.978 6  -8775147.46421        17.250           1.438
 91  7  2  3  1 14.9990000  0  4G16G 3G17G23
  23418077.050     6199238.681 5   4830569.56621        10.750           0.531
  20082740.261    -4253885.441 7  -3249689.01523        26.500           2.781
  20048134.948    -6531071.907 7  -4971150.73424        26.250           3.625
  22072517.690   -11590832.095 6  -8820477.10721        18.000           1.375
 91  7  2  3  1 29.9990000  0  4G16G 3G17G23
  23424870.995     6234940.399 5   4858389.04321        10.250           0.531
  20081365.980    -4261098.046 7  -3255309.22923        26.250           2.688
  20044564.667    -6549837.633 7  -4985773.37324        26.250           3.563
  22061460.511   -11648932.880 6  -8865750.39722        17.750           1.500
 91  7  2  3  1 44.9990000  0  4G16G 3G17G23
  23431673.730     6270694.444 5   4886249.28721        10.500           0.625
  20080014.456    -4268198.935 7  -3260842.39523        25.500           2.719
  20041009.284    -6568521.689 7  -5000332.37424        27.500           3.531
  22050416.940   -11706956.442 6  -8910963.51321        17.250           1.469
 91  7  2  3  1 59.9990000  0  4G16G 3G17G23
  23438490.089     6306509.977 5   4914157.44921        10.250           0.656
  20078684.519    -4275178.634 7  -3266281.13023        25.250           2.688
  20037470.901    -6587114.721 7  -5014820.44724        27.000           3.656
  22039397.667   -11764893.376 6  -8956109.13322        18.750           1.500
 91  7  2  3  2 14.9990000  0  4G16G 3G17G23
  23445319.714     6342376.696 5   4942105.50121        11.250           0.688
  20077378.862    -4282046.792 7  -3271632.94823        25.250           2.719
  20033948.823    -6605627.071 7  -5029245.64324        27.000           3.688
  22028381.925   -11822753.637 6  -9001194.99322        18.000           1.531
 91  7  2  3  2 29.9990000  0  4G16G 3G17G23
  23452152.612     6378296.203 5   4970094.68021        11.750           0.750
  20076091.956    -4288801.495 7  -3276896.35523        25.500           2.656
  20030439.495    -6624056.749 7  -5043606.42824        25.750           3.781
  22017388.550   -11880535.001 6  -9046219.38522        18.000           1.500
 91  7  2  3  2 44.9990000  0  4G16G 3G17G23
  23458999.792     6414276.432 5   4998131.19221        11.500           0.719
  20074832.003    -4295434.372 7  -3282064.84023        25.750           2.688
  20026949.784    -6642395.454 7  -5057896.32624        26.500           3.813
  22006408.769   -11938228.714 6  -9091175.47321        18.000           1.469
 91  7  2  3  2 59.9990000  0  4G16G 3G17G23
  23465851.519     6450290.014 5   5026193.67021        11.250           0.719
  20073587.261    -4301972.329 7  -3287159.35923        26.000           2.625
  20023472.058    -6660670.339 7  -5072136.49624        26.750           3.781
  21995441.605   -11995861.775 6  -9136084.31721        17.750           1.469
 91  7  2  3  3 14.9990000  0  4G16G 3G17G23
  23472715.628     6486350.224 5   5054292.48221        11.250           0.656
  20072362.331    -4308401.395 7  -3292169.01623        25.250           2.594
  20020012.995    -6678867.552 8  -5086316.14124        28.000           3.781
  21984486.565   -12053420.071 6  -9180934.88122        17.750           1.500
 91  7  2  3  3 29.9980000  0  4G16G 3G17G23
  23479580.326     6522446.230 5   5082419.19121        11.250           0.625
  20071160.639    -4314729.389 7  -3297099.93423        26.000           2.625
  20016562.623    -6696994.298 7  -5100440.87424        27.500           3.719
  21973549.732   -12110908.005 6  -9225730.63122        18.250           1.500
 91  7  2  3  3 44.9980000  0  4G16G 3G17G23
  23486456.740     6558589.307 5   5110582.59821        11.500           0.594
  20069975.959    -4320950.158 7  -3301947.28523        26.500           2.656
  20013125.467    -6715046.313 7  -5114507.37924        27.250           3.625
  21962624.561   -12168326.223 6  -9270472.05621        18.500           1.406
 91  7  2  3  3 59.9980000  0  4G16G 3G17G23
  23493344.045     6594776.856 5   5138780.65821        11.750           0.594
  20068812.412    -4327063.040 7  -3306710.57223        26.000           2.625
  20009706.607    -6733022.157 8  -5128514.52624        28.250           3.563
  21951710.162   -12225670.480 6  -9315155.84821        18.250           1.438
 91  7  2  3  4 14.9980000  0  4G16G 3G17G23
  23500241.756     6631011.498 6   5167015.40521        12.000           0.594
  20067668.436    -4333064.951 7  -3311387.39323        26.000           2.594
  20006302.225    -6750919.080 8  -5142460.16924        28.500           3.625
  21940811.100   -12282937.662 6  -9359779.57421        17.500           1.438
 91  7  2  3  4 29.9980000  0  4G16G 3G17G23
  23507149.600     6667295.395 5   5195288.53721        11.500           0.563
  20066549.326    -4338953.697 7  -3315976.03023        26.000           2.750
  20002909.123    -6768734.810 8  -5156342.55424        28.000           3.688
  21929930.873   -12340125.278 6  -9404341.30721        18.000           1.469
 91  7  2  3  4 44.9980000  0  4G16G 3G17G23
  23514054.029     6703632.693 5   5223603.28921        11.000           0.563
  20065450.943    -4344724.026 7  -3320472.39323        25.500           2.750
  19999535.623    -6786464.875 8  -5170158.19024        28.000           3.594
  21919063.654   -12397228.361 6  -9448837.16921        18.500           1.406
 91  7  2  3  4 59.9980000  0  4G16G 3G17G23
  23520994.131     6740040.993 6   5251973.33521        12.500           0.563
  20064381.943    -4350358.234 7  -3324862.69923        26.000           2.906
  19996185.209    -6804091.219 8  -5183893.00324        28.000           3.625
  21908215.959   -12454229.020 6  -9493253.22421        18.250           1.469
 91  7  2  3  5 14.9980000  0  4G16G 3G17G23
  23527921.264     6776477.010 5   5280365.00221        11.750           0.563
  20063325.178    -4355898.980 7  -3329180.16423        26.000           2.844
  19992837.404    -6821657.154 7  -5197580.74424        27.500           3.531
  21897382.943   -12511169.763 6  -9537622.58721        18.500           1.438
 91  7  2  3  5 29.9980000  0  4G16G 3G17G23
  23534866.178     6812963.217 6   5308795.77421        12.250           0.531
  20062290.139    -4361323.503 7  -3333407.07123        25.250           2.813
  19989512.373    -6839139.491 7  -5211203.33624        27.500           3.625
  21886559.811   -12568027.845 6  -9581927.53521        18.500           1.469
 91  7  2  3  5 44.9980000  0  4G16G 3G17G23
  23541812.225     6849489.895 5   5337258.08621        11.250           0.563
  20061282.412    -4366640.996 7  -3337550.57723        26.000           3.000
  19986200.037    -6856547.753 7  -5224768.21824        27.500           3.594
  21875755.928   -12624812.223 6  -9626175.06121        18.500           1.438
 91  7  2  3  5 59.9980000  0  4G16G 3G17G23
  23548780.365     6886064.209 6   5365757.51921        12.000           0.438
  20060291.834    -4371843.870 7  -3341604.76923        25.500           2.906
  19982902.170    -6873874.658 7  -5238269.69724        27.750           3.750
  21864964.506   -12681515.225 6  -9670359.17921        18.000           1.438
 91  7  2  3  6 14.9980000  0  4G16G 3G17G23
  23555745.803     6922681.939 5   5394290.77421        11.250           0.469
  20059322.037    -4376935.950 7  -3345572.63523        26.250           2.781
  19979620.318    -6891124.195 7  -5251710.89524        26.750           3.688
  21854189.482   -12738140.523 6  -9714482.74521        18.250           1.406
 91  7  2  3  6 29.9980000  0  4G16G 3G17G23
  23562719.748     6959354.180 5   5422866.51021        10.250           0.531
  20058376.490    -4381905.934 7  -3349445.35223        26.250           2.969
  19976354.475    -6908285.246 7  -5265083.14124        27.250           3.719
  21843429.147   -12794676.881 6  -9758537.00321        18.000           1.406
 91  7  2  3  6 44.9980000  0  4G16G 3G17G23
  23569710.967     6996058.809 5   5451467.49321        10.250           0.500
  20057449.959    -4386775.416 7  -3353239.76423        26.750           2.906
  19973100.428    -6925379.494 7  -5278403.33224        27.250           3.688
  21832686.022   -12851145.647 6  -9802538.59921        18.500           1.469
 91  7  2  3  6 59.9980000  0  4G16G 3G17G23
  23576697.764     7032817.313 5   5480110.42421         9.250           0.469
  20056547.647    -4391522.058 7  -3356938.44923        26.500           3.000
  19969866.232    -6942385.067 7  -5291654.42324        27.750           3.750
  21821957.272   -12907524.739 6  -9846470.30822        19.000           1.531
 91  7  2  3  7 14.9980000  0  4G16G 3G17G23
  23583702.748     7069618.327 5   5508786.51321        10.250           0.469
  20055663.381    -4396157.289 7  -3360550.31923        26.500           2.844
  19966642.022    -6959313.048 7  -5304845.06224        27.000           3.688
  21811243.811   -12963825.101 6  -9890340.67622        19.000           1.500
 91  7  2  3  7 29.9980000  0  4G16G 3G17G23
  23590713.147     7106464.871 5   5537498.06321        10.250           0.656
  20054805.404    -4400677.674 7  -3364072.70223        27.000           2.906
  19963438.428    -6976160.267 7  -5317972.76424        27.250           3.688
  21800545.725   -13020043.432 6  -9934147.11721        18.750           1.469
 91  7  2  3  7 44.9980000  0  4G16G 3G17G23
  23597742.201     7143356.589 5   5566244.82521        11.500           0.594
  20053965.537    -4405082.976 7  -3367505.40923        26.250           2.875
  19960247.537    -6992927.023 7  -5331037.76524        26.750           3.688
  21789865.397   -13076179.378 7  -9977889.36822        20.000           1.594
 91  7  2  3  7 59.9980000  0  4G16G 3G17G23
  23604764.600     7180272.487 5   5595010.42421        11.250           0.625
  20053149.225    -4409393.641 7  -3370864.37023        26.250           2.969
  19957066.756    -7009633.945 7  -5344056.14024        26.750           3.688
  21779193.522   -13132253.231 7 -10021583.23322        20.250           1.563
 91  7  2  3  8 14.9980000  0  4G16G 3G17G23
  23611797.764     7217222.311 6   5623802.46521        12.000           0.563
  20052344.303    -4413599.488 7  -3374141.65723        25.000           2.906
  19953905.529    -7026270.901 8  -5357019.99824        28.250           3.719
  21768536.350   -13188254.849 6 -10065220.81422        19.750           1.594
 91  7  2  3  8 29.9980000  0  4G16G 3G17G23
  23618836.482     7254216.228 5   5652628.85821        11.750           0.563
  20051566.482    -4417689.970 7  -3377329.04923        25.250           3.000
  19950750.842    -7042827.525 7  -5369921.26024        27.500           3.688
  21757896.834   -13244173.695 7 -10108793.89722        20.500           1.625
 91  7  2  3  8 44.9980000  0  4G16G 3G17G23
  23625884.936     7291249.202 5   5681485.68921        11.000           0.563
  20050809.225    -4421669.911 7  -3380430.30623        25.250           3.031
  19947617.522    -7059308.638 8  -5382763.68124        28.250           3.750
  21747267.115   -13300014.006 6 -10152305.78522        19.750           1.625
 91  7  2  3  8 59.9980000  0  4G16G 3G17G23
  23632938.373     7328331.847 5   5710381.21621         9.500           0.531
  20050074.225    -4425528.162 7  -3383436.74323        26.000           2.938
  19944496.959    -7075703.474 8  -5395538.87424        28.000           3.813
  21736656.959   -13355765.039 7 -10195748.09922        20.000           1.625
 91  7  2  3  9 14.9980000  0  4G16G 3G17G23
  23640002.443     7365445.051 5   5739300.54021         9.500           0.500
  20049362.764    -4429283.417 7  -3386362.91923        27.000           2.906
  19941390.147    -7092030.873 7  -5408261.51924        27.000           3.750
  21726063.975   -13411445.191 7 -10239135.19522        20.250           1.750
 91  7  2  3  9 29.9980000  0  4G16G 3G17G23
  23647073.295     7402608.693 5   5768259.17721        10.000           0.500
  20048669.107    -4432915.492 7  -3389193.10423        26.250           2.875
  19938299.076    -7108270.503 7  -5420915.77624        27.250           3.750
  21715486.420   -13467034.135 7 -10282451.20822        20.250           1.625
 91  7  2  3  9 44.9980000  0  4G16G 3G17G23
  23654155.342     7439813.564 5   5797249.94921        10.000           0.563
  20048002.193    -4436432.922 7  -3391933.96923        26.500           2.906
  19935223.459    -7124431.639 7  -5433508.86524        27.000           3.531
  21704923.186   -13522540.611 7 -10325702.95822        20.250           1.719
 91  7  2  3  9 59.9980000  0  4G16G 3G17G23
  23661236.240     7477057.682 5   5826271.29521        10.000           0.469
  20047354.225    -4439837.098 7  -3394586.57823        26.750           2.875
  19932161.857    -7140515.425 7  -5446041.68224        26.750           3.781
  21694375.584   -13577965.744 7 -10368891.33522        21.000           1.656
 91  7  2  3 10 14.9980000  0  4G16G 3G17G23
  23668333.186     7514351.720 5   5855331.56721        10.000           0.500
  20046726.998    -4443117.290 7  -3397142.57623        25.500           2.844
  19929118.490    -7156511.037 7  -5458505.78924        27.500           3.688
  21683849.303   -13633298.448 7 -10412007.68122        21.250           1.781
 91  7  2  3 10 29.9980000  0  4G16G 3G17G23
  23675439.178     7551685.041 5   5884422.42221        10.250           0.438
  20046125.139    -4446283.367 7  -3399609.66023        25.500           2.781
  19926090.412    -7172428.913 7  -5470909.32124        27.000           3.656
  21673333.553   -13688548.964 7 -10455059.98722        21.000           1.813
 91  7  2  3 10 44.9980000  0  4G16G 3G17G23
  23682551.084     7589054.596 5   5913541.53421        10.000           0.500
  20045544.193    -4449338.325 7  -3401990.15823        25.250           2.844
  19923075.045    -7188272.379 7  -5483254.86724        27.500           3.656
  21662833.803   -13743720.037 7 -10498050.38922        21.000           1.750
 91  7  2  3 10 59.9980000  0  4G16G 3G17G23
  23689672.334     7626470.431 5   5942696.67921         9.500           0.563
  20044986.600    -4452271.595 7  -3404275.81723        25.000           2.688
  19920074.045    -7204030.688 7  -5495534.06224        27.000           3.719
  21652353.920   -13798800.777 7 -10540970.40922        21.250           1.906
 91  7  2  3 11 14.9980000  0  4G16G 3G17G23
  23696791.209     7663905.442 5   5971866.78521         8.250           0.625
  20044446.186    -4455109.690 7  -3406487.33223        26.000           2.656
  19917087.607    -7219730.666 7  -5507767.80824        27.250           3.813
  21641882.475   -13853817.891 7 -10583840.83822        20.250           1.875
 91  7  2  3 11 29.9980000  0  4G16G 3G17G23
  23703924.662     7701387.547 5   6001073.55921         8.000           0.500
  20043927.795    -4457824.548 7  -3408602.80523        25.000           2.656
  19914118.811    -7235344.424 8  -5519934.36924        28.000           3.906
  21631430.428   -13908743.196 7 -10626639.73422        20.500           1.938
 91  7  2  3 11 44.9980000  0  4G16G 3G17G23
  23711063.568     7738907.991 5   6030310.21821         7.500           0.438
  20043432.076    -4460424.794 7  -3410628.97823        25.750           2.594
  19911161.982    -7250880.598 8  -5532040.48324        28.250           3.781
  21620993.045   -13963585.119 7 -10669373.66322        20.000           1.969
 91  7  2  3 11 59.9980000  0  4G16G 3G17G23
  23718216.967     7776470.037 5   6059579.27821         9.000           0.344
  20042960.647    -4462906.390 7  -3412562.69623        25.250           2.625
  19908216.193    -7266335.422 7  -5544083.18624        27.000           3.688
  21610574.795   -14018339.666 7 -10712039.49622        20.250           1.875
 91  7  2  3 12 14.9980000  0  4G16G 3G17G23
  23725363.662     7814066.839 5   6088875.47021         9.250           0.344
  20042508.553    -4465275.620 7  -3414408.85323        25.250           2.563
  19905294.092    -7281715.363 8  -5556067.54924        28.000           3.719
  21600170.412   -14073012.871 7 -10754641.95022        20.000           1.906
 91  7  2  3 12 29.9980000  0  4G16G 3G17G23
  23732531.818     7851702.085 5   6118201.62221        10.750           0.469
  20042082.154    -4467528.873 7  -3416164.63323        25.000           2.719
  19902380.764    -7297016.770 8  -5567990.71424        28.000           3.781
  21589783.568   -14127601.084 7 -10797178.17822        20.000           1.969
 91  7  2  3 12 44.9980000  0  4G16G 3G17G23
  23739705.342     7889378.011 6   6147559.45621        12.000           0.344
  20041673.123    -4469663.126 7  -3417827.69623        24.750           2.625
  19899485.592    -7312237.028 8  -5579850.65624        28.000           3.719
  21579413.647   -14182101.378 7 -10839645.90122        20.000           1.875
 91  7  2  3 12 59.9980000  0  4G16G 3G17G23
  23746875.318     7927080.855 5   6176938.28721        11.750           0.531
  20041292.412    -4471691.857 7  -3419408.52523        25.500           2.625
  19896603.647    -7327389.586 7  -5591657.84224        27.750           3.719
  21569054.537   -14236526.869 6 -10882055.32822        19.750           1.969
 91  7  2  3 13 14.9980000  0  4G16G 3G17G23
  23754058.553     7964823.776 5   6206348.31721        11.500           0.438
  20040928.709    -4473601.359 7  -3420896.45423        26.000           2.688
  19893734.904    -7342460.924 7  -5603401.73724        27.500           3.656
  21558714.678   -14290863.847 6 -10924395.79022        19.250           1.813
 91  7  2  3 13 29.9980000  0  4G16G 3G17G23
  23761245.037     8002613.123 5   6235794.52121        11.000           0.531
  20040587.607    -4475384.951 7  -3422286.27423        25.250           2.594
  19890883.631    -7357444.701 8  -5615077.40624        28.000           3.656
  21548392.568   -14345105.530 6 -10966661.99022        19.750           1.844
 91  7  2  3 13 44.9980000  0  3G 3G17G23
  20040270.318    -4477048.817 7  -3423582.80223        25.000           2.594
  19888045.350    -7372347.096 8  -5626689.65624        28.000           3.656
  21538087.084   -14399257.784 6 -11008858.51322        19.750           1.844
 91  7  2  3 13 59.9980000  0  3G 3G17G23
  20039978.654    -4478594.504 7  -3424787.24123        25.750           2.625
  19885226.061    -7387170.012 8  -5638239.98224        28.000           3.719
  21527798.420   -14453322.683 7 -11050986.95922        20.000           1.906
 91  7  2  3 14 14.9980000  0  3G 3G17G23
  20039702.631    -4480026.596 7  -3425903.16523        25.000           2.625
  19882420.178    -7401918.105 8  -5649731.99424        28.250           3.688
  21517530.881   -14507304.470 7 -11093050.65222        20.250           1.875
 91  7  2  3 14 29.9980000  0  3G 3G17G23
  20039456.287    -4481330.186 7  -3426918.95323        26.000           2.656
  19879628.498    -7416576.454 7  -5661154.07724        27.000           3.625
  21507273.037   -14561188.061 7 -11135037.81622        20.500           1.813
 91  7  2  3 14 44.9980000  0  3G 3G17G23
  20039228.748    -4482518.396 7  -3427844.84123        26.250           2.719
  19876854.467    -7431158.363 7  -5672516.59624        27.250           3.719
  21497033.951   -14614986.288 6 -11176958.47722        19.750           1.906
 91  7  2  3 14 59.9980000  0  3G 3G17G23
  20039026.678    -4483595.238 7  -3428683.94323        26.000           2.688
  19874092.201    -7445668.202 7  -5683822.96224        26.750           3.719
  21486817.232   -14668703.332 7 -11218815.87922        21.250           1.875
 91  7  2  3 15 14.9980000  0  3G 3G17G23
  20038844.381    -4484549.503 7  -3429427.53223        26.250           2.656
  19871350.865    -7460094.941 8  -5695064.57524        28.000           3.750
  21476612.240   -14722328.022 7 -11260601.30722        20.500           1.906
 91  7  2  3 15 29.9980000  0  3G 3G17G23
  20038687.053    -4485373.203 7  -3430069.39023        25.500           2.719
  19868620.264    -7474430.214 7  -5706234.92224        27.750           3.719
  21466428.748   -14775851.797 7 -11302308.10522        21.250           1.906
 91  7  2  3 15 44.9980000  0  3G 3G17G23
  20038553.818    -4486084.126 7  -3430623.35523        26.250           2.813
  19865906.686    -7488692.216 7  -5717348.16924        27.500           3.813
  21456255.529   -14829292.588 7 -11343950.24822        20.500           1.969
 91  7  2  3 15 59.9980000  0  3G 3G17G23
  20038438.553    -4486682.900 7  -3431089.93723        25.750           2.719
  19863207.834    -7502881.746 8  -5728404.94524        28.000           3.844
  21446103.170   -14882651.058 7 -11385528.22722        20.750           1.969
 91  7  2  3 16 14.9980000  0  3G 3G17G23
  20038346.490    -4487153.083 7  -3431456.31823        25.750           2.750
  19860522.295    -7516982.729 7  -5739392.72224        27.750           3.844
  21435966.365   -14935910.610 7 -11427029.13822        20.000           2.063
 91  7  2  3 16 29.9980000  0  3G 3G17G23
  20038279.240    -4487516.528 7  -3431739.53323        25.500           2.813
  19857851.545    -7531016.786 8  -5750328.34524        28.000           3.750
  21425845.131   -14989092.809 7 -11468469.77322        20.750           2.031
 91  7  2  3 16 44.9980000  0  3G 3G17G23
  20038230.654    -4487768.146 7  -3431935.60123        25.750           2.750
  19855195.693    -7544979.312 7  -5761208.22924        27.500           3.656
  21415741.248   -15042192.746 7 -11509846.31222        20.750           2.000
 91  7  2  3 16 59.9980000  0  3G 3G17G23
  20038202.748    -4487911.743 7                        26.000
  19852550.732    -7558874.134 7  -5772035.35824        27.750           3.594
  21405650.123   -15095214.115 7 -11551161.62822        20.750           2.094
 91  7  2  3 17 14.9980000  0  3G 3G17G23
  20038194.693    -4487939.716 7                        25.500
  19849921.350    -7572693.648 7  -5782803.80524        27.750           3.625
  21395580.365   -15148149.030 7 -11592409.58022        21.500           2.063
 91  7  2  3 17 29.9980000  0  3G 3G17G23
  20038215.732    -4487850.535 7                        25.250
  19847308.600    -7586436.734 7  -5793512.69824        27.750           3.563
  21385522.147   -15200996.129 7 -11633589.09822        21.750           2.063
 91  7  2  3 17 44.9980000  0  3G 3G17G23
  20038256.943    -4487644.466 7                        26.000
  19844704.522    -7600103.742 7  -5804162.30924        27.250           3.563
  21375480.561   -15253755.492 7 -11674700.25222        21.250           2.125
 91  7  2  3 17 59.9980000  0  3G 3G17G23
  20038319.850    -4487309.429 7                        25.750
  19842119.014    -7613682.547 7  -5814743.19124        26.500           3.625
  21365463.936   -15306414.648 7 -11715733.32822        22.250           2.094
 91  7  2  3 18 14.9980000  0  3G 3G17G23
  20038406.381    -4486857.765 7  -3431226.25223        26.250           2.781
  19839550.686    -7627185.692 7  -5825265.12723        26.750           3.438
  21355457.428   -15358986.088 7 -11756698.05422        21.000           2.000
 91  7  2  3 18 29.9980000  0  3G 3G17G23
  20038515.982    -4486275.905 7  -3430772.86423        25.500           2.750
  19837001.811    -7640599.920 7  -5835717.77623        27.750           3.438
  21345473.115   -15411456.116 7 -11797583.74722        20.750           2.031
 91  7  2  3 18 44.9980000  0  3G 3G17G23
  20038651.092    -4485570.413 7  -3430223.12723        25.750           2.750
  19834462.178    -7653931.705 7  -5846106.18524        27.750           3.500
  21335505.311   -15463831.248 7 -11838395.50122        21.000           2.188
 91  7  2  3 18 59.9980000  0  3G 3G17G23
  20038806.193    -4484751.316 7  -3429584.87523        25.750           2.781
  19831940.272    -7667191.264 7  -5856438.30824        27.750           3.656
  21325557.467   -15516121.462 7 -11879141.08422        21.500           2.219
 91  7  2  3 19 14.9980000  0  3G 3G17G23
  20038983.584    -4483812.209 7  -3428853.10423        25.250           2.781
  19829432.397    -7680372.348 8  -5866709.28524        28.250           3.594
  21315625.295   -15568320.151 7 -11919815.34722        21.750           2.250
 91  7  2  3 19 29.9980000  0  3G 3G17G23
  20039186.084    -4482751.493 7  -3428026.57223        25.500           2.906
  19826938.990    -7693473.553 8  -5876918.02224        28.000           3.719
  21305707.006   -15620425.662 7 -11960417.00922        21.750           2.313
 91  7  2  3 19 44.9980000  0  3G 3G17G23
  20039411.943    -4481569.092 7  -3427105.22823        25.750           2.750
  19824460.787    -7706494.894 7  -5887064.52024        27.750           3.719
  21295812.006   -15672437.753 7 -12000945.86822        22.250           2.281
 91  7  2  3 19 59.9980000  0  3G 3G17G23
  20039660.990    -4480255.743 7  -3426081.83923        25.250           2.750
  19822001.506    -7719427.340 8  -5897141.75024        28.250           3.844
  21285930.920   -15724347.280 7 -12041394.81722        22.000           2.406
 91  7  2  3 20 14.9980000  0  3G 3G17G23
  20039933.568    -4478817.211 7  -3424960.91723        25.750           2.719
  19819553.967    -7732276.687 7  -5907154.22624        27.750           3.875
  21276071.537   -15776159.879 7 -12081768.22922        21.500           2.281
 91  7  2  3 20 29.9980000  0  3G 3G17G23
  20040230.654    -4477259.446 7  -3423747.07523        26.250           2.719
  19817121.459    -7745048.857 7  -5917106.56524        27.500           4.031
  21266228.100   -15827881.153 7 -12122070.48122        21.250           2.344
 91  7  2  3 20 44.9980000  0  3G 3G17G23
  20040550.482    -4475582.649 7  -3422440.48223        26.000           2.750
  19814706.897    -7757744.394 8  -5926999.18824        28.500           3.938
  21256403.654   -15879511.310 7 -12162301.73522        20.500           2.313
 91  7  2  3 20 59.9980000  0  3G 3G17G23
  20040895.623    -4473774.614 7  -3421031.62923        26.250           2.500
  19812309.084    -7770351.332 8  -5936822.76724        28.000           3.938
  21246599.553   -15931038.141 7 -12202452.47122        21.250           2.375
 91  7  2  3 21 14.9980000  0  3G 3G17G23
  20041262.607    -4471849.214 7  -3419531.32823        26.750           2.656
  19809921.772    -7782883.623 7  -5946588.18524        27.000           3.875
  21236811.967   -15982475.267 7 -12242533.30523        21.750           2.500
 91  7  2  3 21 29.9980000  0  3G 3G17G23
  20041647.811    -4469806.742 7  -3417939.78923        25.500           2.656
  19807550.022    -7795341.500 7  -5956295.62224        27.250           3.656
  21227041.389   -16033822.928 7 -12282544.43623        21.750           2.625
 91  7  2  3 21 44.9980000  0  3G 3G17G23
  20042060.272    -4467642.805 7  -3416253.61523        25.250           2.719
  19805197.912    -7807720.791 7  -5965941.81724        27.750           3.563
  21217286.084   -16085076.662 7 -12322482.37623        21.000           2.594
 91  7  2  3 21 59.9980000  0  3G 3G17G23
  20042492.490    -4465368.290 7  -3414481.26823        24.500           2.625
  19802854.381    -7820032.463 8  -5975535.32424        28.000           3.719
  21207551.803   -16136247.172 7 -12362355.45823        21.750           2.656
 91  7  2  3 22 14.9980000  0  3G 3G17G23
  20042951.654    -4462970.479 7  -3412612.84823        24.750           2.750
  19800527.811    -7832264.015 7  -5985066.40124        27.750           3.656
  21197831.912   -16187321.800 7 -12402153.82822        21.500           2.438
 91  7  2  3 22 29.9980000  0  3G 3G17G23
  20043428.873    -4460452.052 7  -3410650.43723        24.000           2.688
  19798216.451    -7844418.367 8  -5994537.31624        28.500           3.781
  21188129.701   -16238303.330 7 -12441879.66323        21.750           2.625
 91  7  2  3 22 44.9980000  0  3G 3G17G23
  20043928.607    -4457814.557 7  -3408595.25123        24.500           2.656
  19795917.084    -7856496.794 8  -6003949.06824        28.250           3.719
  21178446.568   -16289192.938 7 -12481533.86323        21.000           2.563
 91  7  2  3 22 59.9980000  0  3G 3G17G23
  20044453.115    -4455070.287 7  -3406456.86223        24.500           2.750
  19793629.678    -7868511.942 7  -6013311.52024        27.500           3.563
  21168774.107   -16340002.828 7 -12521125.94522        20.750           2.469
 91  7  2  3 23 14.9980000  0  3G 3G17G23
  20044998.865    -4452204.309 7  -3404223.64023        25.250           2.688
  19791356.193    -7880448.883 7  -6022613.04024        27.250           3.625
  21159124.264   -16390717.906 7 -12560644.14722        21.750           2.438
 91  7  2  3 23 29.9980000  0  3G 3G17G23
  20045565.225    -4449219.867 7  -3401898.10823        25.000           2.656
  19789103.037    -7892310.964 8  -6031856.22324        28.000           3.594
  21149491.787   -16441341.437 7 -12600091.01722        22.000           2.438
 91  7  2  3 23 44.9980000  0  3G 3G17G23
  20046159.990    -4446112.501 7  -3399476.78523        25.750           2.625
  19786855.193    -7904093.812 7  -6041037.66424        26.750           3.531
  21139879.600   -16491868.697 7 -12639462.87123        23.000           2.500
 91  7  2  3 23 59.9980000  0  3G 3G17G23
  20046769.678    -4442895.524 7  -3396970.05923        25.500           2.594
  19784629.686    -7915811.138 7  -6050168.04724        27.750           3.719
  21130279.373   -16542313.056 7 -12678770.12123        22.250           2.531
 91  7  2  3 24 14.9980000  0  3G 3G17G23
  20047404.498    -4439555.688 7  -3394367.59723        25.000           2.531
  19782414.045    -7927449.539 7  -6059236.93024        27.750           3.844
  21120700.162   -16592661.263 7 -12718002.46023        23.000           2.500
 91  7  2  3 24 29.9980000  0  3G 3G17G23
  20048064.654    -4436090.662 7  -3391667.57523        26.000           2.594
  19780218.287    -7939007.081 8  -6068242.80624        28.500           3.813
  21111132.256   -16642910.847 7 -12757157.94122        21.250           2.375
 91  7  2  3 24 44.9980000  0  3G 3G17G23
  20048744.342    -4432516.592 7  -3388882.59023        25.250           2.531
  19778026.178    -7950499.850 8  -6077198.21524        28.000           3.781
  21101584.389   -16693077.632 7 -12796248.90823        22.000           2.531
 91  7  2  3 24 59.9980000  0  3G 3G17G23
  20049449.584    -4428817.285 7  -3386000.01323        25.250           2.594
  19775856.420    -7961911.996 8  -6086090.80624        28.500           3.781
  21092059.357   -16743145.501 7 -12835262.79023        22.500           2.500
 91  7  2  3 25 14.9980000  0  3G 3G17G23
  20050176.389    -4424996.401 7  -3383022.70123        24.750           2.531
  19773699.225    -7973246.919 8  -6094923.21624        28.000           3.813
  21082554.006   -16793117.846 7 -12874202.23723        23.750           2.500
 91  7  2  3 25 29.9980000  0  3G 3G17G23
  20050926.365    -4421053.150 7  -3379950.04223        24.500           2.531
  19771558.037    -7984504.020 8  -6103694.98424        28.750           3.875
  21073060.607   -16842993.800 7 -12913066.57923        23.500           2.500
 91  7  2  3 25 44.9980000  0  3G 3G17G23
  20051698.912    -4416990.999 7  -3376784.73623        24.500           2.500
  19769428.561    -7995686.756 8  -6112408.79124        28.500           3.875
  21063585.764   -16892776.886 7 -12951858.56323        23.500           2.563
 91  7  2  3 25 59.9980000  0  3G 3G17G23
  20052493.318    -4412817.213 7  -3373532.43923        24.500           2.563
  19767314.498    -8006802.779 8  -6121070.62324        29.000           3.844
  21054130.272   -16942474.199 7 -12990583.70223        23.250           2.500
 91  7  2  3 26 14.9980000  0  3G 3G17G23
  20053311.373    -4408520.710 7  -3370184.52023        25.250           2.500
  19765213.295    -8017841.091 8  -6129671.89424        28.250           3.781
  21044686.248   -16992074.521 7 -13029233.27022        21.750           2.469
 91  7  2  3 26 29.9980000  0  3G 3G17G23
  20054151.990    -4404105.585 7  -3366744.16723        25.000           2.500
  19763126.350    -8028805.710 8  -6138215.75124        28.000           3.688
  21035269.717   -17041581.823 7 -13067810.35923        22.750           2.563
 91  7  2  3 26 44.9980000  0  3G 3G17G23
  20055014.061    -4399572.543 7  -3363211.92923        25.000           2.563
  19761054.842    -8039697.774 8  -6146703.06524        28.000           3.750
  21025865.115   -17090996.886 7 -13106315.56423        22.500           2.594
 91  7  2  3 26 59.9980000  0  3G 3G17G23
  20055899.701    -4394915.903 7  -3359583.38423        25.250           2.531
  19758996.951    -8050511.368 7  -6155129.23624        27.500           3.656
  21016482.623   -17140313.674 7 -13144744.19523        23.250           2.594
 91  7  2  3 27 14.9980000  0  3G 3G17G23
  20056807.311    -4390139.545 7  -3355861.54422        24.000           2.469
  19756953.975    -8061250.736 8  -6163497.57324        28.750           3.906
  21007113.107   -17189536.143 7 -13183099.33522        22.500           2.469
 91  7  2  3 27 29.9980000  0  3G 3G17G23
  20057738.139    -4385246.092 7  -3352048.46923        24.500           2.531
  19754921.334    -8071918.352 7  -6171809.98824        27.500           4.031
  20997766.920   -17238666.765 7 -13221382.90723        23.250           2.594
 91  7  2  3 27 44.9980000  0  3G 3G17G23
  20058694.045    -4380228.203 7  -3348138.42923        24.000           2.594
  19752908.615    -8082507.187 8  -6180061.02824        28.250           4.000
  20988435.701   -17287698.103 7 -13259589.10423        23.500           2.563
 91  7  2  3 27 59.9980000  0  3G 3G17G23
  20059675.506    -4375091.218 7  -3344135.59623        24.750           2.563
  19750906.076    -8093022.772 8  -6188254.98524        28.250           3.688
  20979123.764   -17336635.548 7 -13297722.14523        23.250           2.625
 91  7  2  3 28 14.9980000  0  3G 3G17G23
  20060674.943    -4369827.237 7  -3340033.80123        24.000           2.500
  19748921.115    -8103456.918 8  -6196385.48624        28.250           3.750
  20969831.201   -17385470.737 7 -13335775.50823        23.750           2.594
 91  7  2  3 28 29.9980000  0  3G 3G17G23
  20061695.756    -4364454.139 7  -3335846.98323        24.250           2.594
  19746946.498    -8113827.986 8  -6204466.83824        28.250           3.813
  20960552.397   -17434221.723 7 -13373763.25423        23.000           2.563
 91  7  2  3 28 44.9980000  0  3G 3G17G23
  20062743.428    -4358965.980 7  -3331570.50523        24.750           2.500
  19744988.006    -8124129.958 8  -6212494.34824        28.500           3.969
  20951289.818   -17482882.123 7 -13411680.41823        22.000           2.594
 91  7  2  3 28 59.9980000  0  3G 3G17G23
  20063809.647    -4353355.707 7  -3327198.87322        25.000           2.375
  19743041.639    -8134355.879 8  -6220462.59324        28.250           3.938
  20942052.053   -17531445.220 7 -13449521.75823        22.750           2.656
 91  7  2  3 29 14.9980000  0  3G 3G17G23
  20064900.436    -4347626.959 7  -3322734.91122        25.000           2.438
  19741109.576    -8144509.143 8  -6228374.21924        28.250           4.031
  20932829.287   -17579914.366 7 -13487289.89423        22.750           2.594
 91  7  2  3 29 29.9980000  0  3G 3G17G23
  20066010.701    -4341780.434 7  -3318179.18622        25.000           2.375
  19739189.240    -8154590.861 7  -6236230.09724        27.750           4.063
  20923622.811   -17628290.141 7 -13524985.26723        22.750           2.656
 91  7  2  3 29 44.9980000  0  3G 3G17G23
  20067146.975    -4335808.372 7  -3313525.63522        24.750           2.406
  19737287.139    -8164593.552 8  -6244024.39424        28.500           3.969
  20914435.873   -17676564.771 7 -13562601.82623        22.500           2.781
 91  7  2  3 29 59.9980000  0  3G 3G17G23
  20068309.787    -4329706.501 7  -3308770.93122        25.500           2.469
  19735397.568    -8174512.955 7  -6251753.78424        27.500           3.969
  20905268.990   -17724733.841 7 -13600136.13223        22.500           2.750
 91  7  2  3 30 14.9980000  0  3G 3G17G23
  20069494.154    -4323488.664 7  -3303925.87223        25.500           2.531
  19733526.959    -8184363.030 8  -6259429.16924        28.000           4.031
  20896119.967   -17772811.082 7 -13637598.88723        22.500           2.719
 91  7  2  3 30 29.9980000  0  3G 3G17G23
  20070702.357    -4317154.786 7  -3298990.38522        26.250           2.375
  19731662.787    -8194143.738 7  -6267050.48624        27.250           4.000
  20886990.092   -17820796.131 7 -13674989.80523        22.500           2.813
 91  7  2  3 30 44.9980000  0  3G 3G17G23
  20071924.795    -4310707.109 7  -3293966.22623        25.250           2.531
  19729816.514    -8203857.191 7  -6274619.40024        27.750           3.969
  20877873.928   -17868691.207 7 -13712310.61123        22.250           2.844
 91  7  2  3 30 59.9980000  0  3G 3G17G23
  20073177.350    -4304136.142 7  -3288845.99523        25.750           2.563
  19727980.756    -8213494.280 7  -6282128.81324        27.500           3.844
  20868782.482   -17916486.922 7 -13749553.99123        22.250           2.844
 91  7  2  3 31 14.9980000  0  3G 3G17G23
  20074449.404    -4297440.930 7  -3283628.95223        25.000           2.531
  19726161.881    -8223053.882 8  -6289577.84924        28.000           4.000
  20859704.740   -17964182.106 7 -13786719.03723        22.250           2.813
 91  7  2  3 31 29.9980000  0  3G 3G17G23
  20075744.959    -4290625.531 7  -3278318.25823        24.750           2.500
  19724356.287    -8232540.389 8  -6296969.91924        28.250           3.844
  20850644.201   -18011780.709 7 -13823808.82823        21.750           2.938
 91  7  2  3 31 44.9980000  0  3G 3G17G23
  20077066.295    -4283687.933 7  -3272912.34523        25.000           2.563
  19722566.740    -8241951.659 8  -6304303.36924        28.500           3.813
  20841607.967   -18059280.397 7 -13860821.54323        22.250           2.938
 91  7  2  3 31 59.9980000  0  3G 3G17G23
  20078409.186    -4276623.533 7  -3267407.62623        24.500           2.500
  19720794.365    -8251283.449 8  -6311574.88224        28.750           3.938
  20832590.740   -18106676.808 7 -13897753.77923        22.750           2.906
 91  7  2  3 32 14.9980000  0  3G 3G17G23
  20079782.154    -4269433.074 7  -3261804.68022        25.750           2.438
  19719028.772    -8260536.164 8  -6318784.78324        28.000           4.000
  20823586.959   -18153970.246 7 -13934605.78023        21.750           2.906
 91  7  2  3 32 29.9980000  0  3G 3G17G23
  20081172.928    -4262125.662 7  -3256110.59822        26.250           2.469
  19717279.584    -8269719.227 7  -6325940.41724        26.750           3.781
  20814607.576   -18201169.718 7 -13971384.56223        23.000           3.000
 91  7  2  3 32 44.9980000  0  3G 3G17G23
  20082583.607    -4254701.425 7  -3250325.48123        25.000           2.500
  19715548.561    -8278832.696 7  -6333041.82024        27.500           3.781
  20805643.412   -18248275.299 7 -14008090.17623        22.750           2.969
 91  7  2  3 32 59.9980000  0  3G 3G17G23
  20084021.912    -4247142.308 7  -3244435.27223        26.000           2.500
  19713831.139    -8287858.843 7  -6340075.17624        27.500           3.813
  20796698.342   -18295269.178 7 -14044708.76023        22.000           3.031
 91  7  2  3 33 14.9980000  0  3G 3G17G23
  20085483.154    -4239458.347 7  -3238447.77822        26.250           2.438
  19712125.850    -8296807.617 7  -6347048.24524        27.250           3.813
  20787776.701   -18342161.159 7 -14081247.93423        22.500           3.000
 91  7  2  3 33 29.9980000  0  3G 3G17G23
  20086968.826    -4231653.444 7  -3232366.04323        25.000           2.563
  19710439.764    -8305683.143 8  -6353964.23624        28.250           3.938
  20778873.022   -18388954.853 7 -14117710.52723        22.250           3.000
 91  7  2  3 33 44.9980000  0  3G 3G17G23
  20088475.857    -4223732.853 7  -3226194.17023        25.000           2.563
  19708761.756    -8314490.720 7  -6360827.28024        27.750           3.969
  20769989.818   -18435655.536 7 -14154100.63523        23.500           2.969
 91  7  2  3 33 59.9980000  0  3G 3G17G23
  20090006.029    -4215696.671 7  -3219932.21822        25.000           2.469
  19707099.295    -8323230.522 7  -6367637.50924        27.500           4.063
  20761115.865   -18482263.130 7 -14190418.21423        22.750           2.875
 91  7  2  3 34 14.9980000  0  3G 3G17G23
  20091556.693    -4207546.248 7  -3213581.25423        25.250           2.531
  19705449.889    -8331903.821 7  -6374395.92824        27.500           4.094
  20752267.865   -18528778.736 7 -14226664.11423        23.750           2.969
 91  7  2  3 34 29.9970000  0  3G 3G17G23
  20093129.806    -4199274.402 7  -3207135.66523        25.250           2.563
  19703810.579    -8340502.403 7  -6381096.12424        27.500           4.000
  20743431.243   -18575191.409 7 -14262829.80023        22.750           3.031
 91  7  2  3 34 44.9970000  0  3G 3G17G23
  20094728.415    -4190882.468 7  -3200596.50623        25.000           2.625
  19702188.751    -8349030.231 7  -6387741.18724        27.500           4.063
  20734619.501   -18621509.927 7 -14298922.12923        22.750           3.063
 91  7  2  3 34 59.9970000  0  3G 3G17G23
  20096344.688    -4182379.066 7  -3193970.49023        25.500           2.531
  19700578.923    -8357494.432 7  -6394336.67024        27.500           4.031
  20725821.540   -18667738.964 7 -14334944.72223        22.750           3.125
 91  7  2  3 35 14.9970000  0  3G 3G17G23
  20097987.532    -4173740.730 7  -3187239.32523        25.000           2.594
  19698984.571    -8365871.801 7  -6400864.48624        27.500           4.063
  20717045.337   -18713855.057 7 -14370879.30923        23.250           3.219
 91  7  2  3 35 29.9970000  0  3G 3G17G23
  20099656.579    -4164975.776 7  -3180409.49823        24.250           2.531
  19697407.267    -8374170.855 8  -6407331.28224        29.000           4.000
  20708289.431   -18759866.295 7 -14406732.19123        23.000           3.219
 91  7  2  3 35 44.9970000  0  3G 3G17G23
  20101348.048    -4156090.382 7  -3173485.82822        24.500           2.469
  19695840.032    -8382397.732 8  -6413741.82524        28.000           4.031
  20699554.243   -18805778.976 7 -14442508.28423        23.500           3.250
 91  7  2  3 35 59.9970000  0  3G 3G17G23
  20103063.118    -4147085.163 7  -3166468.77722        25.000           2.469
  19694289.485    -8390552.958 7  -6420096.54624        27.500           3.969
  20690833.118   -18851593.160 7 -14478207.62123        23.500           3.188
 91  7  2  3 36 14.9970000  0  3G 3G17G23
  20104798.204    -4137959.958 7  -3159358.23922        24.750           2.469
  19692748.509    -8398636.643 7  -6426395.51424        26.750           3.969
  20682136.126   -18897309.117 7 -14513830.41023        24.250           3.219
 91  7  2  3 36 29.9970000  0  3G 3G17G23
  20106556.618    -4128711.214 7  -3152151.43922        24.500           2.469
  19691227.431    -8406645.459 7  -6432636.15124        27.250           4.125
  20673458.032   -18942922.927 7 -14549373.61323        24.750           3.125
 91  7  2  3 36 44.9970000  0  3G 3G17G23
  20108338.485    -4119353.907 7  -3144860.04822        24.750           2.406
  19689711.517    -8414594.195 7  -6438829.96724        27.000           4.063
  20664792.001   -18988449.382 7 -14584848.74723        23.750           3.031
 91  7  2  3 36 59.9970000  0  3G 3G17G23
  20110142.360    -4109877.315 7  -3137475.69922        24.500           2.250
  19688214.149    -8422472.144 7  -6444968.62524        27.750           4.063
  20656147.743   -19033877.736 7 -14620247.43923        23.750           3.000
 91  7  2  3 37 14.9970000  0  3G 3G17G23
  20111966.985    -4100281.553 7  -3129998.48722        24.000           2.406
  19686728.204    -8430279.611 7  -6451052.36324        27.750           3.969
  20647520.884   -19079207.995 7 -14655569.69223        23.750           3.000
 91  7  2  3 37 29.9970000  0  3G 3G17G23
  20113820.071    -4090561.603 7  -3122424.51322        24.750           2.438
  19685257.923    -8438011.637 7  -6457077.31524        27.250           3.969
  20638916.657   -19124435.106 7 -14690811.57123        24.000           3.156
 91  7  2  3 37 44.9970000  0  3G 3G17G23
  20115691.282    -4080723.522 7  -3114758.48722        24.500           2.344
  19683798.782    -8445674.256 7  -6463048.19224        27.000           3.938
  20630325.243   -19169564.793 7 -14725977.53623        23.250           3.156
 91  7  2  3 37 59.9970000  0  3G 3G17G23
  20117587.415    -4070756.828 7  -3106992.24122        24.750           2.406
  19682357.103    -8453256.797 7  -6468956.67824        27.500           4.094
  20621758.032   -19214586.435 7 -14761059.30423        23.750           3.094
 91  7  2  3 38 14.9970000  0  3G 3G17G23
  20119509.501    -4060656.935 7  -3099122.21122        24.750           2.406
  19680927.110    -8460755.132 7  -6474799.54124        26.500           4.094
  20613213.360   -19259495.397 7 -14796053.28123        24.250           3.063
 91  7  2  3 38 29.9970000  0  3G 3G17G23
  20121452.384    -4050429.243 7  -3091152.58622        23.750           2.469
  19679519.235    -8468174.558 7  -6480580.91924        27.500           4.156
  20604688.853   -19304296.951 7 -14830963.55423        24.500           3.094
 91  7  2  3 38 44.9970000  0  3G 3G17G23
  20123425.688    -4040082.339 7  -3083090.08223        25.000           2.594
  19678118.821    -8475523.806 7  -6486307.60024        27.250           4.125
  20596182.970   -19348999.737 7 -14865796.87023        24.000           3.094
 91  7  2  3 38 59.9970000  0  3G 3G17G23
  20125414.876    -4029615.213 7  -3074933.89423        24.500           2.531
  19676734.438    -8482801.654 7  -6491978.64924        27.500           4.188
  20587692.337   -19393602.577 7 -14900552.30723        23.500           3.031
 91  7  2  3 39 14.9970000  0  3G 3G17G23
  20127432.017    -4019015.963 7  -3066674.75623        24.500           2.531
  19675364.431    -8489996.411 7  -6497584.95824        27.250           4.000
  20579229.782   -19438093.440 7 -14935220.48623        24.000           3.156
 91  7  2  3 39 29.9970000  0  3G 3G17G23
  20129472.853    -4008295.432 7  -3058321.10423        25.250           2.563
  19674009.462    -8497119.109 7  -6503135.11124        27.250           4.063
  20570778.009   -19482483.008 7 -14969809.72623        23.500           3.125
 91  7  2  3 39 44.9970000  0  3G 3G17G23
  20131540.056    -3997444.349 7  -3049865.73123        25.250           2.531
  19672668.329    -8504160.619 7  -6508621.99624        27.000           4.125
  20562353.712   -19526762.055 7 -15004312.85423        23.250           3.063
 91  7  2  3 39 59.9970000  0  3G 3G17G23
  20133621.657    -3986482.859 7  -3041324.32722        23.750           2.438
  19671340.899    -8511140.555 7  -6514060.90424        27.000           4.125
  20553946.196   -19570950.278 7 -15038745.20723        24.500           3.031
 91  7  2  3 40 14.9970000  0  3G 3G17G23
  20135732.274    -3975402.462 7  -3032690.25522        24.000           2.406
  19670028.392    -8518051.083 7  -6519445.72324        27.750           3.969
  20545557.618   -19615039.326 7 -15073100.28723        25.000           3.094
 91  7  2  3 40 29.9970000  0  3G 3G17G23
  20137862.993    -3964210.985 7  -3023969.62922        23.500           2.438
  19668722.907    -8524899.809 7  -6524782.38124        27.750           3.938
  20537183.149   -19659036.986 7 -15107384.15323        24.750           3.031
 91  7  2  3 40 44.9970000  0  3G 3G17G23
  20140015.540    -3952894.691 7  -3015151.75322        24.000           2.406
  19667433.478    -8531672.879 7  -6530060.09724        27.500           3.875
  20528831.626   -19702929.139 7 -15141585.80023        24.750           3.156
 91  7  2  3 40 59.9970000  0  3G 3G17G23
  20142189.524    -3941456.096 7  -3006238.56822        23.250           2.344
  19666159.384    -8538373.597 7  -6535281.42424        27.750           4.000
  20520496.845   -19746718.489 7 -15175707.34223        23.750           3.219
 91  7  2  3 41 14.9970000  0  3G 3G17G23
  20144389.806    -3929900.486 7  -2997234.20422        23.250           2.313
  19664897.079    -8545006.545 7  -6540449.95224        27.250           4.000
  20512185.235   -19790409.991 7 -15209752.63923        25.000           3.250
